FW7316 Weather Reports


Display with metric or nautical units.
time (UTC)temp
F
wind
direction
speed
MPH
gust
MPH
rain 1hr
in
rain 24hr
in
rain mn
in
humidity
%
barometer
mb
20220624231705 75 252 3.0 9.0 0.00 0.00 0.00 61 1010.1
20220624231620 75 249 3.0 9.0 0.00 0.00 0.00 60 1010.1
20220624231502 75 335 2.0 9.0 0.00 0.00 0.00 60 1010.1
20220624231404 75 269 2.0 9.0 0.00 0.00 0.00 60 1010.1
20220624231302 75 313 5.0 11.0 0.00 0.00 0.00 60 1010.1
20220624231222 75 234 8.0 11.0 0.00 0.00 0.00 60 1010.1
20220624231103 75 335 3.0 11.0 0.00 0.00 0.00 60 1010.1
20220624231002 75 233 4.0 11.0 0.00 0.00 0.00 60 1010.1
20220624230920 75 227 3.0 11.0 0.00 0.00 0.00 60 1010.1
20220624230803 75 207 8.0 11.0 0.00 0.00 0.00 60 1010.1
20220624230701 75 217 5.0 11.0 0.00 0.00 0.00 60 1010.0
20220624230600 75 224 3.0 11.0 0.00 0.00 0.00 60 1010.0
20220624230507 75 237 3.0 12.0 0.00 0.00 0.00 60 1010.0
20220624230402 75 241 6.0 12.0 0.00 0.00 0.00 60 1010.0
20220624230300 75 244 9.0 21.0 0.00 0.00 0.00 59 1009.9
20220624230207 75 280 3.0 21.0 0.00 0.00 0.00 59 1009.9
20220624230116 75 246 1.0 21.0 0.00 0.00 0.00 59 1009.9
20220624230004 75 224 3.0 21.0 0.00 0.00 0.00 59 1009.9
20220624225903 75 236 3.0 21.0 0.00 0.00 0.00 59 1009.9
20220624225800 76 242 3.0 21.0 0.00 0.00 0.00 59 1009.9
20220624225719 76 261 6.0 21.0 0.00 0.00 0.00 59 1009.9
20220624225604 76 222 7.0 21.0 0.00 0.00 0.00 58 1009.8
20220624225503 76 246 10.0 21.0 0.00 0.00 0.00 58 1009.8
20220624225401 76 295 3.0 21.0 0.00 0.00 0.00 58 1009.7
20220624225322 76 246 8.0 21.0 0.00 0.00 0.00 57 1009.7
20220624225201 76 180 5.0 16.0 0.00 0.00 0.00 57 1009.8
20220624225102 76 231 5.0 16.0 0.00 0.00 0.00 57 1009.7
20220624225007 76 205 9.0 16.0 0.00 0.00 0.00 57 1009.7
20220624224902 76 219 8.0 16.0 0.00 0.00 0.00 57 1009.7
20220624224801 76 204 5.0 18.0 0.00 0.00 0.00 57 1009.6
20220624224705 76 212 6.0 17.0 0.00 0.00 0.00 57 1009.5
20220624224601 76 214 11.0 17.0 0.00 0.00 0.00 57 1009.5
20220624224501 76 199 9.0 17.0 0.00 0.00 0.00 56 1009.5
20220624224403 76 217 12.0 19.0 0.00 0.00 0.00 56 1009.4
20220624224300 76 236 12.0 20.0 0.00 0.00 0.00 56 1009.4
20220624224220 76 215 8.0 20.0 0.00 0.00 0.00 56 1009.4
20220624224103 77 203 10.0 22.0 0.00 0.00 0.00 55 1009.3
20220624224006 77 193 6.0 22.0 0.00 0.00 0.00 55 1009.3
20220624223901 77 217 10.0 22.0 0.00 0.00 0.00 55 1009.2
20220624223808 77 215 18.0 22.0 0.00 0.00 0.00 55 1009.2
20220624223700 77 206 17.0 22.0 0.00 0.00 0.00 55 1009.1
20220624223601 77 221 10.0 22.0 0.00 0.00 0.00 55 1009.0
20220624223524 77 232 11.0 22.0 0.00 0.00 0.00 55 1009.0
20220624223400 77 205 15.0 22.0 0.00 0.00 0.00 55 1009.0
20220624223300 77 201 18.0 22.0 0.00 0.00 0.00 55 1009.0
20220624223203 77 225 13.0 22.0 0.00 0.00 0.00 54 1009.0
20220624223101 77 194 20.0 22.0 0.00 0.00 0.00 54 1009.0
20220624223016 77 196 14.0 24.0 0.00 0.00 0.00 54 1009.0
20220624222922 77 194 15.0 24.0 0.00 0.00 0.00 54 1009.0
20220624222802 77 213 14.0 24.0 0.00 0.00 0.00 54 1008.9
20220624222701 77 194 19.0 24.0 0.00 0.00 0.00 54 1008.9
20220624222609 77 217 18.0 24.0 0.00 0.00 0.00 54 1008.9
20220624222501 77 201 14.0 24.0 0.00 0.00 0.00 54 1009.0
20220624222416 77 205 19.0 24.0 0.00 0.00 0.00 53 1009.0
20220624222322 77 209 9.0 24.0 0.00 0.00 0.00 53 1009.0
20220624222200 77 189 16.0 24.0 0.00 0.00 0.00 53 1009.0
20220624222121 77 209 15.0 24.0 0.00 0.00 0.00 53 1009.0
20220624222004 77 188 23.0 24.0 0.00 0.00 0.00 53 1009.1
20220624221903 77 209 19.0 20.0 0.00 0.00 0.00 53 1009.1
20220624221800 77 208 17.0 20.0 0.00 0.00 0.00 52 1009.1
20220624221703 77 211 19.0 20.0 0.00 0.00 0.00 52 1009.2
20220624221604 77 186 14.0 19.0 0.00 0.00 0.00 52 1009.2
20220624221501 77 213 11.0 19.0 0.00 0.00 0.00 52 1009.3
20220624221404 77 187 13.0 19.0 0.00 0.00 0.00 52 1009.2
20220624221303 77 186 8.0 19.0 0.00 0.00 0.00 51 1009.2
20220624221202 77 191 15.0 21.0 0.00 0.00 0.00 51 1009.3
20220624221103 77 182 14.0 21.0 0.00 0.00 0.00 51 1009.3
20220624221005 77 196 14.0 21.0 0.00 0.00 0.00 51 1009.3
20220624220900 77 192 7.0 21.0 0.00 0.00 0.00 50 1009.3
20220624220803 77 190 13.0 21.0 0.00 0.00 0.00 50 1009.3
20220624220719 77 210 15.0 21.0 0.00 0.00 0.00 50 1009.3
20220624220603 77 215 12.0 21.0 0.00 0.00 0.00 50 1009.3
20220624220503 77 198 11.0 21.0 0.00 0.00 0.00 50 1009.3
20220624220424 77 186 14.0 21.0 0.00 0.00 0.00 50 1009.3
20220624220300 77 191 14.0 21.0 0.00 0.00 0.00 50 1009.3
20220624220204 77 206 15.0 21.0 0.00 0.00 0.00 50 1009.3
20220624220139 77 190 13.0 21.0 0.00 0.00 0.00 50 1009.3
20220624220035 77 189 18.0 21.0 0.00 0.00 0.00 50 1009.3
20220624215903 77 200 19.0 21.0 0.00 0.00 0.00 49 1009.2
20220624215803 77 200 20.0 21.0 0.00 0.00 0.00 49 1009.2
20220624215703 77 195 13.0 21.0 0.00 0.00 0.00 50 1009.2
20220624215606 77 188 10.0 21.0 0.00 0.00 0.00 50 1009.1
20220624215503 77 198 18.0 22.0 0.00 0.00 0.00 50 1009.2
20220624215422 77 178 14.0 18.0 0.00 0.00 0.00 50 1009.2
20220624215305 77 192 16.0 18.0 0.00 0.00 0.00 50 1009.3
20220624215202 77 203 11.0 18.0 0.00 0.00 0.00 50 1009.3
20220624215104 77 199 12.0 18.0 0.00 0.00 0.00 50 1009.3
20220624215028 77 204 10.0 18.0 0.00 0.00 0.00 51 1009.3
20220624214903 77 212 16.0 18.0 0.00 0.00 0.00 51 1009.3
20220624214803 77 188 14.0 18.0 0.00 0.00 0.00 51 1009.3
20220624214725 77 200 10.0 18.0 0.00 0.00 0.00 51 1009.3
20220624214602 77 182 10.0 18.0 0.00 0.00 0.00 51 1009.4
20220624214503 76 209 9.0 18.0 0.00 0.00 0.00 51 1009.4
20220624214406 76 183 9.0 18.0 0.00 0.00 0.00 52 1009.4
20220624214323 76 197 7.0 18.0 0.00 0.00 0.00 52 1009.4
20220624214203 76 202 8.0 18.0 0.00 0.00 0.00 52 1009.4
20220624214105 76 197 16.0 19.0 0.00 0.00 0.00 53 1009.5
20220624214032 76 215 14.0 16.0 0.00 0.00 0.00 53 1009.5
20220624213925 76 196 8.0 16.0 0.00 0.00 0.00 54 1009.4
20220624213805 76 198 7.0 16.0 0.00 0.00 0.00 55 1009.4
20220624213702 76 198 7.0 16.0 0.00 0.00 0.00 55 1009.4
20220624213623 76 184 6.0 16.0 0.00 0.00 0.00 55 1009.4
20220624213504 76 194 11.0 16.0 0.00 0.00 0.00 56 1009.3
20220624213401 76 175 11.0 16.0 0.00 0.00 0.00 57 1009.4
20220624213310 76 183 10.0 16.0 0.00 0.00 0.00 57 1009.4
20220624213220 76 187 10.0 16.0 0.00 0.00 0.00 57 1009.3
20220624213103 75 190 13.0 16.0 0.00 0.00 0.00 58 1009.4
20220624213003 75 185 11.0 16.0 0.00 0.00 0.00 58 1009.3
20220624212906 75 186 8.0 16.0 0.00 0.00 0.00 58 1009.4
20220624212820 75 176 8.0 16.0 0.00 0.00 0.00 59 1009.4
20220624212703 75 197 9.0 16.0 0.00 0.00 0.00 59 1009.4
20220624212606 76 195 8.0 12.0 0.00 0.00 0.00 59 1009.4
20220624212505 76 175 7.0 12.0 0.00 0.00 0.00 59 1009.4
20220624212423 76 175 11.0 12.0 0.00 0.00 0.00 59 1009.4
20220624212305 76 186 10.0 12.0 0.00 0.00 0.00 58 1009.4
20220624212203 76 188 7.0 12.0 0.00 0.00 0.00 58 1009.4
20220624212105 76 185 5.0 12.0 0.00 0.00 0.00 58 1009.4
20220624212008 76 185 7.0 12.0 0.00 0.00 0.00 58 1009.4
20220624211903 76 167 8.0 12.0 0.00 0.00 0.00 58 1009.5
20220624211801 76 186 7.0 12.0 0.00 0.00 0.00 58 1009.5
20220624211704 76 183 9.0 12.0 0.00 0.00 0.00 58 1009.5
20220624211602 76 178 6.0 12.0 0.00 0.00 0.00 57 1009.4
20220624211503 76 168 5.0 12.0 0.00 0.00 0.00 57 1009.4
20220624211405 76 161 4.0 12.0 0.00 0.00 0.00 57 1009.4
20220624211300 76 178 6.0 11.0 0.00 0.00 0.00 56 1009.4
20220624211203 77 177 7.0 11.0 0.00 0.00 0.00 56 1009.4
20220624211103 77 177 7.0 12.0 0.00 0.00 0.00 55 1009.4
20220624211043 77 170 7.0 12.0 0.00 0.00 0.00 55 1009.4
20220624210900 77 173 8.0 12.0 0.00 0.00 0.00 55 1009.4
20220624210804 77 180 7.0 12.0 0.00 0.00 0.00 54 1009.5
20220624210723 77 190 6.0 13.0 0.00 0.00 0.00 54 1009.5
20220624210618 77 173 7.0 13.0 0.00 0.00 0.00 54 1009.5
20220624210524 77 192 7.0 13.0 0.00 0.00 0.00 54 1009.5
20220624210405 77 187 6.0 15.0 0.00 0.00 0.00 53 1009.5
20220624210303 77 182 6.0 15.0 0.00 0.00 0.00 53 1009.5
20220624210207 77 174 3.0 15.0 0.00 0.00 0.00 53 1009.5
20220624210116 77 192 5.0 15.0 0.00 0.00 0.00 53 1009.4
20220624210013 77 168 5.0 15.0 0.00 0.00 0.00 53 1009.4
20220624205904 77 178 6.0 15.0 0.00 0.00 0.00 53 1009.4
20220624205802 77 180 10.0 15.0 0.00 0.00 0.00 53 1009.4
20220624205703 77 196 10.0 15.0 0.00 0.00 0.00 53 1009.4
20220624205605 77 187 11.0 15.0 0.00 0.00 0.00 53 1009.4
20220624205503 77 184 11.0 15.0 0.00 0.00 0.00 53 1009.4
20220624205418 77 181 10.0 12.0 0.00 0.00 0.00 53 1009.4
20220624205305 77 188 6.0 13.0 0.00 0.00 0.00 53 1009.4
20220624205221 77 190 11.0 14.0 0.00 0.00 0.00 53 1009.4
20220624205102 78 205 8.0 14.0 0.00 0.00 0.00 53 1009.4
20220624205007 78 196 8.0 14.0 0.00 0.00 0.00 53 1009.4
20220624204902 78 190 8.0 14.0 0.00 0.00 0.00 52 1009.4
20220624204802 78 188 10.0 14.0 0.00 0.00 0.00 52 1009.4
20220624204705 78 198 8.0 14.0 0.00 0.00 0.00 52 1009.4
20220624204603 78 192 6.0 14.0 0.00 0.00 0.00 52 1009.4
20220624204503 78 191 12.0 14.0 0.00 0.00 0.00 52 1009.5
20220624204405 78 185 11.0 14.0 0.00 0.00 0.00 52 1009.5
20220624204318 78 211 8.0 14.0 0.00 0.00 0.00 52 1009.5
20220624204202 78 182 8.0 15.0 0.00 0.00 0.00 52 1009.5
20220624204123 78 217 13.0 13.0 0.00 0.00 0.00 52 1009.5
20220624204006 78 209 9.0 12.0 0.00 0.00 0.00 52 1009.5
20220624203902 78 190 9.0 12.0 0.00 0.00 0.00 52 1009.6
20220624203823 78 200 6.0 12.0 0.00 0.00 0.00 52 1009.6
20220624203701 78 200 8.0 12.0 0.00 0.00 0.00 51 1009.6
20220624203602 78 209 7.0 12.0 0.00 0.00 0.00 51 1009.6
20220624203508 78 200 6.0 12.0 0.00 0.00 0.00 51 1009.6
20220624203403 78 197 7.0 12.0 0.00 0.00 0.00 51 1009.6
20220624203303 78 212 3.0 12.0 0.00 0.00 0.00 51 1009.6
20220624203204 78 207 9.0 12.0 0.00 0.00 0.00 51 1009.7
20220624203103 78 213 7.0 12.0 0.00 0.00 0.00 51 1009.7
20220624203013 78 192 9.0 13.0 0.00 0.00 0.00 51 1009.7
20220624202905 78 205 6.0 13.0 0.00 0.00 0.00 51 1009.7
20220624202822 78 186 7.0 13.0 0.00 0.00 0.00 51 1009.7
20220624202703 78 208 6.0 13.0 0.00 0.00 0.00 50 1009.7
20220624202604 78 202 3.0 13.0 0.00 0.00 0.00 50 1009.7
20220624202502 79 220 6.0 13.0 0.00 0.00 0.00 50 1009.7
20220624202403 79 217 7.0 13.0 0.00 0.00 0.00 50 1009.6
20220624202305 79 200 8.0 13.0 0.00 0.00 0.00 50 1009.6
20220624202202 78 224 9.0 14.0 0.00 0.00 0.00 50 1009.6
20220624202105 78 203 8.0 14.0 0.00 0.00 0.00 50 1009.6
20220624202006 78 193 9.0 14.0 0.00 0.00 0.00 50 1009.6
20220624201922 78 215 11.0 14.0 0.00 0.00 0.00 50 1009.6
20220624201801 78 212 7.0 14.0 0.00 0.00 0.00 49 1009.5
20220624201705 79 225 7.0 14.0 0.00 0.00 0.00 49 1009.5
20220624201603 79 211 7.0 14.0 0.00 0.00 0.00 49 1009.6
20220624201521 79 229 11.0 14.0 0.00 0.00 0.00 49 1009.6
20220624201405 79 226 7.0 14.0 0.00 0.00 0.00 49 1009.6
20220624201318 79 227 12.0 14.0 0.00 0.00 0.00 48 1009.6
20220624201203 79 232 12.0 14.0 0.00 0.00 0.00 48 1009.5
20220624201104 78 211 8.0 13.0 0.00 0.00 0.00 48 1009.5
20220624201040 79 216 10.0 13.0 0.00 0.00 0.00 48 1009.5
20220624200922 78 217 10.0 20.0 0.00 0.00 0.00 48 1009.5
20220624200804 78 207 7.0 20.0 0.00 0.00 0.00 48 1009.5
20220624200703 78 216 8.0 20.0 0.00 0.00 0.00 48 1009.4
20220624200604 78 205 10.0 20.0 0.00 0.00 0.00 48 1009.5
20220624200505 78 219 11.0 20.0 0.00 0.00 0.00 48 1009.4
20220624200403 78 182 11.0 20.0 0.00 0.00 0.00 48 1009.4
20220624200321 78 216 8.0 20.0 0.00 0.00 0.00 49 1009.4
20220624200205 78 221 7.0 20.0 0.00 0.00 0.00 49 1009.4
20220624200116 78 208 13.0 20.0 0.00 0.00 0.00 50 1009.4
20220624200011 78 213 9.0 20.0 0.00 0.00 0.00 50 1009.4
20220624195904 77 219 18.0 18.0 0.00 0.00 0.00 51 1009.4
20220624195802 77 211 9.0 14.0 0.00 0.00 0.00 51 1009.4
20220624195702 77 220 8.0 10.0 0.00 0.00 0.00 53 1009.4
20220624195603 77 211 8.0 10.0 0.00 0.00 0.00 54 1009.5
20220624195505 77 209 8.0 10.0 0.00 0.00 0.00 54 1009.5
20220624195402 77 211 7.0 9.0 0.00 0.00 0.00 54 1009.5
20220624195314 77 217 5.0 9.0 0.00 0.00 0.00 54 1009.5
20220624195200 78 200 7.0 9.0 0.00 0.00 0.00 54 1009.5
20220624195100 78 209 5.0 9.0 0.00 0.00 0.00 54 1009.5
20220624195041 78 222 7.0 9.0 0.00 0.00 0.00 54 1009.5
20220624194901 78 195 7.0 9.0 0.00 0.00 0.00 55 1009.5
20220624194802 78 191 7.0 8.0 0.00 0.00 0.00 55 1009.5
20220624194705 78 200 6.0 8.0 0.00 0.00 0.00 54 1009.4
20220624194603 78 219 7.0 9.0 0.00 0.00 0.00 55 1009.4
20220624194504 78 196 3.0 7.0 0.00 0.00 0.00 55 1009.3
20220624194403 78 178 4.0 7.0 0.00 0.00 0.00 54 1009.3
20220624194302 78 178 4.0 7.0 0.00 0.00 0.00 54 1009.3
20220624194226 79 178 5.0 7.0 0.00 0.00 0.00 53 1009.3
20220624194104 79 184 3.0 7.0 0.00 0.00 0.00 53 1009.3
20220624194040 79 184 5.0 7.0 0.00 0.00 0.00 53 1009.3
20220624193902 79 168 4.0 6.0 0.00 0.00 0.00 52 1009.3
20220624193820 79 198 5.0 6.0 0.00 0.00 0.00 52 1009.3
20220624193701 80 196 4.0 8.0 0.00 0.00 0.00 51 1009.2
20220624193603 80 202 4.0 8.0 0.00 0.00 0.00 51 1009.2
20220624193504 80 205 4.0 8.0 0.00 0.00 0.00 50 1009.2
20220624193402 80 208 4.0 8.0 0.00 0.00 0.00 50 1009.2
20220624193321 80 211 4.0 10.0 0.00 0.00 0.00 50 1009.2
20220624193201 80 213 4.0 15.0 0.00 0.00 0.00 50 1009.2
20220624193007 80 209 4.0 15.0 0.00 0.00 0.00 50 1009.2
20220624192903 80 221 4.0 15.0 0.00 0.00 0.00 50 1009.2
20220624192805 81 217 5.0 15.0 0.00 0.00 0.00 49 1009.2
20220624192724 81 198 6.0 15.0 0.00 0.00 0.00 49 1009.2
20220624192605 81 207 5.0 15.0 0.00 0.00 0.00 49 1009.2
20220624192505 81 215 5.0 15.0 0.00 0.00 0.00 49 1009.1
20220624192402 81 196 5.0 15.0 0.00 0.00 0.00 49 1009.1
20220624192302 81 215 7.0 15.0 0.00 0.00 0.00 49 1009.1
20220624192202 81 229 13.0 15.0 0.00 0.00 0.00 49 1009.1
20220624192115 81 233 9.0 14.0 0.00 0.00 0.00 49 1009.1
20220624192004 81 190 9.0 15.0 0.00 0.00 0.00 49 1009.1
20220624191902 81 207 7.0 15.0 0.00 0.00 0.00 49 1009.1
20220624191804 81 210 9.0 15.0 0.00 0.00 0.00 49 1009.0
20220624191701 81 213 9.0 15.0 0.00 0.00 0.00 50 1009.0
20220624191602 81 202 9.0 15.0 0.00 0.00 0.00 50 1009.0
20220624191505 81 203 10.0 15.0 0.00 0.00 0.00 50 1009.0
20220624191403 81 209 11.0 15.0 0.00 0.00 0.00 50 1009.0
20220624191301 81 217 10.0 15.0 0.00 0.00 0.00 50 1009.0
20220624191204 81 199 9.0 15.0 0.00 0.00 0.00 50 1009.0
20220624191102 81 223 10.0 15.0 0.00 0.00 0.00 50 1008.9
20220624191003 81 202 9.0 15.0 0.00 0.00 0.00 50 1008.9
20220624190904 82 194 5.0 17.0 0.00 0.00 0.00 50 1008.9
20220624190803 82 196 8.0 17.0 0.00 0.00 0.00 49 1009.0
20220624190702 82 207 8.0 17.0 0.00 0.00 0.00 49 1009.0
20220624190604 82 195 8.0 17.0 0.00 0.00 0.00 49 1008.9
20220624190523 82 203 8.0 19.0 0.00 0.00 0.00 49 1008.9
20220624190402 82 204 7.0 19.0 0.00 0.00 0.00 49 1008.9
20220624190305 82 204 10.0 19.0 0.00 0.00 0.00 49 1009.0
20220624190203 82 190 10.0 19.0 0.00 0.00 0.00 48 1008.9
20220624190114 82 195 13.0 19.0 0.00 0.00 0.00 48 1008.9
20220624190007 82 211 11.0 19.0 0.00 0.00 0.00 48 1008.9
20220624185921 82 211 10.0 19.0 0.00 0.00 0.00 48 1008.9
20220624185803 82 207 13.0 19.0 0.00 0.00 0.00 48 1009.0
20220624185705 82 191 12.0 19.0 0.00 0.00 0.00 47 1008.9
20220624185601 82 193 11.0 19.0 0.00 0.00 0.00 47 1008.9
20220624185512 83 195 12.0 18.0 0.00 0.00 0.00 47 1008.9
20220624185405 83 190 8.0 18.0 0.00 0.00 0.00 47 1008.9
20220624185302 83 198 9.0 18.0 0.00 0.00 0.00 47 1008.9
20220624185203 83 186 11.0 18.0 0.00 0.00 0.00 47 1008.9
20220624185105 83 200 14.0 18.0 0.00 0.00 0.00 47 1009.0
20220624185003 83 186 11.0 18.0 0.00 0.00 0.00 46 1009.0
20220624184917 83 196 13.0 18.0 0.00 0.00 0.00 46 1009.0
20220624184804 83 219 16.0 18.0 0.00 0.00 0.00 46 1008.9
20220624184711 83 218 10.0 18.0 0.00 0.00 0.00 46 1008.9
20220624184602 83 207 7.0 19.0 0.00 0.00 0.00 46 1009.0
20220624184514 83 222 8.0 19.0 0.00 0.00 0.00 46 1009.0
20220624184403 83 234 9.0 19.0 0.00 0.00 0.00 46 1008.9
20220624184301 83 235 12.0 19.0 0.00 0.00 0.00 46 1008.9
20220624184208 83 221 10.0 19.0 0.00 0.00 0.00 45 1008.9
20220624184103 83 226 9.0 19.0 0.00 0.00 0.00 45 1008.9
20220624184014 84 221 10.0 19.0 0.00 0.00 0.00 45 1008.9
20220624183924 84 223 13.0 19.0 0.00 0.00 0.00 45 1008.9
20220624183803 84 223 16.0 19.0 0.00 0.00 0.00 44 1008.9
20220624183703 84 209 14.0 19.0 0.00 0.00 0.00 44 1008.9
20220624183624 84 223 15.0 20.0 0.00 0.00 0.00 44 1008.9
20220624183524 84 222 13.0 19.0 0.00 0.00 0.00 43 1008.9
20220624183402 84 190 16.0 17.0 0.00 0.00 0.00 43 1008.9
20220624183309 84 218 9.0 17.0 0.00 0.00 0.00 42 1008.9
20220624183201 84 217 18.0 18.0 0.00 0.00 0.00 42 1008.9
20220624183109 84 209 10.0 17.0 0.00 0.00 0.00 42 1008.8
20220624183010 84 194 10.0 17.0 0.00 0.00 0.00 42 1008.8
20220624182903 84 217 16.0 19.0 0.00 0.00 0.00 41 1008.8
20220624182822 84 207 10.0 19.0 0.00 0.00 0.00 41 1008.8
20220624182704 84 224 12.0 19.0 0.00 0.00 0.00 40 1008.8
20220624182601 85 214 10.0 19.0 0.00 0.00 0.00 40 1008.8
20220624182520 85 212 8.0 19.0 0.00 0.00 0.00 40 1008.8
20220624182407 85 206 12.0 19.0 0.00 0.00 0.00 39 1008.6
20220624182322 85 205 14.0 19.0 0.00 0.00 0.00 39 1008.6
20220624182202 85 197 13.0 17.0 0.00 0.00 0.00 39 1008.6
20220624182126 85 174 8.0 17.0 0.00 0.00 0.00 39 1008.6
20220624182002 85 201 12.0 17.0 0.00 0.00 0.00 38 1008.6
20220624181919 85 212 15.0 17.0 0.00 0.00 0.00 38 1008.6
20220624181805 85 206 17.0 17.0 0.00 0.00 0.00 38 1008.6
20220624181724 85 200 10.0 17.0 0.00 0.00 0.00 38 1008.6
20220624181601 85 202 10.0 17.0 0.00 0.00 0.00 37 1008.5
20220624181511 85 209 11.0 17.0 0.00 0.00 0.00 38 1008.5
20220624181423 85 195 7.0 17.0 0.00 0.00 0.00 37 1008.5
20220624181323 85 191 11.0 17.0 0.00 0.00 0.00 38 1008.5
20220624181204 85 199 9.0 17.0 0.00 0.00 0.00 37 1008.6
20220624181135 85 211 9.0 17.0 0.00 0.00 0.00 37 1008.6
20220624181004 85 221 11.0 15.0 0.00 0.00 0.00 38 1008.6
20220624180903 85 202 11.0 16.0 0.00 0.00 0.00 37 1008.6
20220624180805 86 211 13.0 16.0 0.00 0.00 0.00 37 1008.6
20220624180704 86 192 9.0 16.0 0.00 0.00 0.00 37 1008.5
20220624180624 86 214 10.0 16.0 0.00 0.00 0.00 37 1008.5
20220624180504 86 216 10.0 17.0 0.00 0.00 0.00 37 1008.5
20220624180402 86 213 10.0 20.0 0.00 0.00 0.00 38 1008.5
20220624180301 86 197 7.0 20.0 0.00 0.00 0.00 38 1008.5
20220624180209 86 221 12.0 20.0 0.00 0.00 0.00 38 1008.5
20220624180119 86 215 8.0 20.0 0.00 0.00 0.00 38 1008.4
20220624180012 86 194 15.0 20.0 0.00 0.00 0.00 38 1008.4
20220624175928 86 224 15.0 20.0 0.00 0.00 0.00 38 1008.5
20220624175804 86 235 11.0 20.0 0.00 0.00 0.00 38 1008.5
20220624175704 86 197 16.0 20.0 0.00 0.00 0.00 38 1008.5
20220624175603 86 211 11.0 20.0 0.00 0.00 0.00 38 1008.4
20220624175504 86 210 17.0 20.0 0.00 0.00 0.00 37 1008.4
20220624175404 87 219 19.0 19.0 0.00 0.00 0.00 38 1008.4
20220624175301 87 208 16.0 17.0 0.00 0.00 0.00 37 1008.4
20220624175204 87 223 10.0 17.0 0.00 0.00 0.00 37 1008.4
20220624175103 87 218 15.0 18.0 0.00 0.00 0.00 37 1008.4
20220624175005 87 221 16.0 17.0 0.00 0.00 0.00 37 1008.4
20220624174904 87 230 11.0 17.0 0.00 0.00 0.00 37 1008.4
20220624174804 87 199 11.0 17.0 0.00 0.00 0.00 37 1008.4
20220624174702 87 233 16.0 17.0 0.00 0.00 0.00 37 1008.4
20220624174604 87 215 13.0 17.0 0.00 0.00 0.00 37 1008.3
20220624174505 87 226 13.0 17.0 0.00 0.00 0.00 37 1008.3
20220624174402 87 218 12.0 17.0 0.00 0.00 0.00 37 1008.3
20220624174304 87 209 13.0 17.0 0.00 0.00 0.00 36 1008.3
20220624174204 87 220 13.0 17.0 0.00 0.00 0.00 36 1008.3
20220624174102 87 236 14.0 16.0 0.00 0.00 0.00 35 1008.4
20220624174045 87 237 12.0 15.0 0.00 0.00 0.00 35 1008.4
20220624173901 87 216 14.0 15.0 0.00 0.00 0.00 32 1008.4
20220624173810 87 233 9.0 14.0 0.00 0.00 0.00 32 1008.4
20220624173722 87 235 8.0 14.0 0.00 0.00 0.00 33 1008.4
20220624173601 87 223 5.0 14.0 0.00 0.00 0.00 32 1008.4
20220624173512 87 241 7.0 14.0 0.00 0.00 0.00 31 1008.4
20220624173407 87 256 8.0 14.0 0.00 0.00 0.00 32 1008.4
20220624173302 87 276 12.0 14.0 0.00 0.00 0.00 32 1008.3
20220624173227 87 257 5.0 14.0 0.00 0.00 0.00 32 1008.3
20220624173122 88 265 11.0 14.0 0.00 0.00 0.00 31 1008.3
20220624173008 88 265 11.0 14.0 0.00 0.00 0.00 31 1008.4
20220624172923 88 261 12.0 14.0 0.00 0.00 0.00 31 1008.4
20220624172804 88 277 11.0 14.0 0.00 0.00 0.00 31 1008.3
20220624172702 88 264 10.0 14.0 0.00 0.00 0.00 31 1008.3
20220624172605 88 267 10.0 14.0 0.00 0.00 0.00 32 1008.3
20220624172502 88 270 8.0 14.0 0.00 0.00 0.00 32 1008.3
20220624172410 88 264 7.0 14.0 0.00 0.00 0.00 32 1008.3
20220624172303 88 274 10.0 14.0 0.00 0.00 0.00 31 1008.3
20220624172201 88 284 8.0 14.0 0.00 0.00 0.00 31 1008.3
20220624172102 88 247 9.0 14.0 0.00 0.00 0.00 31 1008.2
20220624172008 88 286 12.0 15.0 0.00 0.00 0.00 31 1008.3
20220624171901 88 280 11.0 15.0 0.00 0.00 0.00 32 1008.2
20220624171801 88 273 9.0 15.0 0.00 0.00 0.00 33 1008.2
20220624171703 88 291 8.0 15.0 0.00 0.00 0.00 32 1008.2
20220624171603 88 276 8.0 15.0 0.00 0.00 0.00 32 1008.2
20220624171501 88 278 11.0 15.0 0.00 0.00 0.00 33 1008.2
20220624171404 88 273 8.0 15.0 0.00 0.00 0.00 32 1008.2
20220624171303 88 262 9.0 15.0 0.00 0.00 0.00 32 1008.2
20220624171202 88 260 8.0 16.0 0.00 0.00 0.00 31 1008.2
20220624171104 88 260 10.0 16.0 0.00 0.00 0.00 31 1008.2
20220624171043 88 254 9.0 16.0 0.00 0.00 0.00 31 1008.2
20220624170922 88 263 12.0 17.0 0.00 0.00 0.00 32 1008.2
20220624170805 88 270 11.0 17.0 0.00 0.00 0.00 31 1008.2
20220624170703 88 279 10.0 17.0 0.00 0.00 0.00 31 1008.1
20220624170602 88 254 12.0 17.0 0.00 0.00 0.00 32 1008.1
20220624170505 88 262 9.0 17.0 0.00 0.00 0.00 33 1008.1
20220624170424 88 253 13.0 17.0 0.00 0.00 0.00 33 1008.1
20220624170302 88 273 11.0 17.0 0.00 0.00 0.00 33 1008.1
20220624170205 88 263 15.0 17.0 0.00 0.00 0.00 32 1008.1
20220624170118 88 279 14.0 17.0 0.00 0.00 0.00 32 1008.1
20220624170005 88 281 13.0 17.0 0.00 0.00 0.00 32 1008.0
20220624165905 88 259 13.0 17.0 0.00 0.00 0.00 32 1008.1
20220624165801 88 274 11.0 19.0 0.00 0.00 0.00 33 1008.0
20220624165702 88 269 9.0 19.0 0.00 0.00 0.00 32 1008.0
20220624165623 88 260 9.0 19.0 0.00 0.00 0.00 33 1008.0
20220624165503 88 257 13.0 19.0 0.00 0.00 0.00 33 1008.0
20220624165402 88 292 9.0 19.0 0.00 0.00 0.00 34 1007.9
20220624165304 88 259 7.0 20.0 0.00 0.00 0.00 34 1007.9
20220624165223 88 229 8.0 20.0 0.00 0.00 0.00 33 1007.9
20220624165104 88 275 9.0 20.0 0.00 0.00 0.00 33 1007.9
20220624165008 88 268 16.0 20.0 0.00 0.00 0.00 34 1007.9
20220624164903 88 244 14.0 20.0 0.00 0.00 0.00 34 1007.9
20220624164802 88 271 13.0 20.0 0.00 0.00 0.00 34 1007.8
20220624164705 88 287 17.0 20.0 0.00 0.00 0.00 34 1008.0
20220624164601 88 248 12.0 20.0 0.00 0.00 0.00 34 1007.9
20220624164506 88 266 11.0 20.0 0.00 0.00 0.00 34 1007.9
20220624164403 88 247 12.0 20.0 0.00 0.00 0.00 37 1007.8
20220624164303 88 262 13.0 16.0 0.00 0.00 0.00 38 1007.8
20220624164202 88 265 9.0 16.0 0.00 0.00 0.00 39 1007.8
20220624164103 88 266 10.0 16.0 0.00 0.00 0.00 40 1007.8
20220624164004 88 271 10.0 17.0 0.00 0.00 0.00 40 1007.8
20220624163904 88 252 10.0 17.0 0.00 0.00 0.00 40 1007.7
20220624163806 88 254 8.0 17.0 0.00 0.00 0.00 40 1007.7
20220624163722 88 246 7.0 17.0 0.00 0.00 0.00 40 1007.7
20220624163606 87 252 11.0 17.0 0.00 0.00 0.00 38 1007.8
20220624163502 87 263 8.0 17.0 0.00 0.00 0.00 37 1007.8
20220624163401 87 269 9.0 17.0 0.00 0.00 0.00 37 1007.8
20220624163322 87 262 7.0 17.0 0.00 0.00 0.00 38 1007.8
20220624163209 87 273 11.0 17.0 0.00 0.00 0.00 38 1007.8
20220624163102 87 280 12.0 17.0 0.00 0.00 0.00 37 1007.8
20220624163038 87 267 14.0 17.0 0.00 0.00 0.00 37 1007.8
20220624162905 88 278 8.0 15.0 0.00 0.00 0.00 37 1007.7
20220624162802 88 270 11.0 18.0 0.00 0.00 0.00 38 1007.7
20220624162704 88 273 11.0 18.0 0.00 0.00 0.00 37 1007.8
20220624162623 88 284 7.0 18.0 0.00 0.00 0.00 38 1007.8
20220624162503 88 277 11.0 18.0 0.00 0.00 0.00 38 1007.8
20220624162405 89 273 8.0 18.0 0.00 0.00 0.00 37 1007.8
20220624162305 89 271 10.0 18.0 0.00 0.00 0.00 37 1007.8
20220624162201 89 272 9.0 18.0 0.00 0.00 0.00 37 1007.7
20220624162103 89 265 10.0 18.0 0.00 0.00 0.00 37 1007.7
20220624162005 89 292 7.0 18.0 0.00 0.00 0.00 36 1007.7
20220624161902 89 275 11.0 18.0 0.00 0.00 0.00 37 1007.7
20220624161825 89 246 16.0 18.0 0.00 0.00 0.00 36 1007.7
20220624161704 89 321 10.0 16.0 0.00 0.00 0.00 37 1007.7
20220624161602 89 264 11.0 18.0 0.00 0.00 0.00 37 1007.7
20220624161502 89 276 14.0 18.0 0.00 0.00 0.00 37 1007.7
20220624161409 89 265 9.0 18.0 0.00 0.00 0.00 37 1007.7
20220624161305 89 270 10.0 18.0 0.00 0.00 0.00 37 1007.7
20220624161203 89 277 13.0 18.0 0.00 0.00 0.00 37 1007.7
20220624161104 89 346 9.0 18.0 0.00 0.00 0.00 37 1007.7
20220624161003 89 267 9.0 18.0 0.00 0.00 0.00 37 1007.7
20220624160902 89 275 9.0 18.0 0.00 0.00 0.00 37 1007.7
20220624160804 89 288 10.0 18.0 0.00 0.00 0.00 36 1007.7
20220624160703 89 322 10.0 18.0 0.00 0.00 0.00 36 1007.7
20220624160602 89 275 12.0 18.0 0.00 0.00 0.00 36 1007.7
20220624160504 89 274 9.0 18.0 0.00 0.00 0.00 36 1007.8
20220624160402 89 275 7.0 18.0 0.00 0.00 0.00 36 1007.8
20220624160302 90 281 14.0 14.0 0.00 0.00 0.00 38 1007.7
20220624160205 90 259 10.0 14.0 0.00 0.00 0.00 37 1007.8
20220624160115 90 252 7.0 18.0 0.00 0.00 0.00 38 1007.8
20220624160006 90 273 11.0 18.0 0.00 0.00 0.00 38 1007.8
20220624155905 90 271 7.0 20.0 0.00 0.00 0.00 39 1007.8
20220624155803 90 219 3.0 21.0 0.00 0.00 0.00 37 1007.8
20220624155702 90 254 8.0 21.0 0.00 0.00 0.00 37 1007.8
20220624155604 90 246 6.0 21.0 0.00 0.00 0.00 37 1007.8
20220624155502 90 240 5.0 21.0 0.00 0.00 0.00 36 1007.8
20220624155401 90 250 6.0 21.0 0.00 0.00 0.00 36 1007.8
20220624155304 90 253 11.0 21.0 0.00 0.00 0.00 37 1007.8
20220624155202 90 274 10.0 21.0 0.00 0.00 0.00 36 1007.8
20220624155125 90 289 8.0 21.0 0.00 0.00 0.00 36 1007.8
20220624155008 90 259 11.0 21.0 0.00 0.00 0.00 36 1007.8
20220624154903 90 284 13.0 21.0 0.00 0.00 0.00 36 1007.8
20220624154801 90 284 15.0 21.0 0.00 0.00 0.00 35 1007.8
20220624154705 90 244 13.0 21.0 0.00 0.00 0.00 36 1007.8
20220624154602 90 290 7.0 21.0 0.00 0.00 0.00 38 1007.8
20220624154524 90 256 11.0 21.0 0.00 0.00 0.00 37 1007.8
20220624154406 90 236 6.0 21.0 0.00 0.00 0.00 37 1007.8
20220624154305 90 228 15.0 21.0 0.00 0.00 0.00 36 1007.8
20220624154202 90 223 14.0 21.0 0.00 0.00 0.00 36 1007.8
20220624154105 90 252 18.0 21.0 0.00 0.00 0.00 36 1007.7
20220624154003 90 284 10.0 21.0 0.00 0.00 0.00 36 1007.8
20220624153902 90 259 13.0 21.0 0.00 0.00 0.00 37 1007.8
20220624153823 90 260 21.0 21.0 0.00 0.00 0.00 37 1007.8
20220624153701 90 260 12.0 20.0 0.00 0.00 0.00 36 1007.7
20220624153601 90 261 16.0 17.0 0.00 0.00 0.00 34 1007.8
20220624153520 90 230 15.0 18.0 0.00 0.00 0.00 36 1007.8
20220624153402 90 255 13.0 18.0 0.00 0.00 0.00 36 1007.8
20220624153302 90 244 14.0 18.0 0.00 0.00 0.00 35 1007.8
20220624153204 90 244 16.0 18.0 0.00 0.00 0.00 36 1007.8
20220624153111 90 222 7.0 19.0 0.00 0.00 0.00 36 1007.8
20220624153005 90 263 12.0 19.0 0.00 0.00 0.00 35 1007.7
20220624152905 90 248 11.0 19.0 0.00 0.00 0.00 36 1007.7
20220624152805 90 245 8.0 19.0 0.00 0.00 0.00 36 1007.8
20220624152702 90 256 12.0 19.0 0.00 0.00 0.00 35 1007.7
20220624152604 90 252 12.0 19.0 0.00 0.00 0.00 36 1007.7
20220624152504 90 271 15.0 19.0 0.00 0.00 0.00 35 1007.7
20220624152401 90 270 11.0 19.0 0.00 0.00 0.00 35 1007.7
20220624152304 90 254 10.0 19.0 0.00 0.00 0.00 35 1007.7
20220624152218 90 278 13.0 19.0 0.00 0.00 0.00 36 1007.7
20220624152150 90 267 13.0 19.0 0.00 0.00 0.00 35 1007.6
20220624152004 90 277 9.0 15.0 0.00 0.00 0.00 34 1007.7
20220624151903 90 254 10.0 15.0 0.00 0.00 0.00 37 1007.7
20220624151804 90 292 6.0 15.0 0.00 0.00 0.00 36 1007.6
20220624151708 90 266 5.0 15.0 0.00 0.00 0.00 34 1007.6
20220624151605 90 258 12.0 14.0 0.00 0.00 0.00 37 1007.6
20220624151505 90 263 10.0 12.0 0.00 0.00 0.00 35 1007.6
20220624151407 91 257 8.0 12.0 0.00 0.00 0.00 36 1007.6
20220624151303 91 267 11.0 12.0 0.00 0.00 0.00 35 1007.6
20220624151203 91 264 7.0 12.0 0.00 0.00 0.00 34 1007.6
20220624151105 91 252 8.0 12.0 0.00 0.00 0.00 35 1007.6
20220624151004 91 236 6.0 12.0 0.00 0.00 0.00 36 1007.6
20220624150904 91 220 6.0 12.0 0.00 0.00 0.00 36 1007.6
20220624150810 90 269 4.0 12.0 0.00 0.00 0.00 36 1007.5
20220624150702 90 224 6.0 12.0 0.00 0.00 0.00 38 1007.5
20220624150604 90 256 6.0 13.0 0.00 0.00 0.00 36 1007.6
20220624150509 90 244 4.0 21.0 0.00 0.00 0.00 39 1007.5
20220624150405 90 275 7.0 21.0 0.00 0.00 0.00 38 1007.5
20220624150303 90 275 7.0 21.0 0.00 0.00 0.00 37 1007.5
20220624150203 90 271 6.0 21.0 0.00 0.00 0.00 37 1007.5
20220624150113 91 288 7.0 21.0 0.00 0.00 0.00 37 1007.5
20220624150007 91 275 8.0 21.0 0.00 0.00 0.00 37 1007.5
20220624145904 91 255 6.0 21.0 0.00 0.00 0.00 36 1007.3
20220624145802 91 236 8.0 21.0 0.00 0.00 0.00 35 1007.4
20220624145703 91 217 7.0 21.0 0.00 0.00 0.00 35 1007.4
20220624145604 91 207 9.0 21.0 0.00 0.00 0.00 34 1007.4
20220624145501 91 236 11.0 18.0 0.00 0.00 0.00 35 1007.4
20220624145404 91 258 15.0 18.0 0.00 0.00 0.00 37 1007.4
20220624145302 91 284 6.0 18.0 0.00 0.00 0.00 36 1007.4
20220624145214 91 223 12.0 18.0 0.00 0.00 0.00 36 1007.4
20220624145103 91 274 10.0 16.0 0.00 0.00 0.00 34 1007.5
20220624145010 91 236 7.0 16.0 0.00 0.00 0.00 34 1007.4
20220624144905 91 229 16.0 16.0 0.00 0.00 0.00 34 1007.5
20220624144822 91 229 12.0 15.0 0.00 0.00 0.00 36 1007.5
20220624144702 91 215 8.0 15.0 0.00 0.00 0.00 36 1007.5
20220624144623 91 195 6.0 15.0 0.00 0.00 0.00 36 1007.5
20220624144522 91 226 8.0 15.0 0.00 0.00 0.00 36 1007.5
20220624144410 91 244 10.0 15.0 0.00 0.00 0.00 35 1007.4
20220624144303 91 238 11.0 15.0 0.00 0.00 0.00 35 1007.4
20220624144202 92 234 10.0 14.0 0.00 0.00 0.00 36 1007.4
20220624144102 92 259 14.0 14.0 0.00 0.00 0.00 34 1007.3
20220624144033 92 213 7.0 14.0 0.00 0.00 0.00 34 1007.3
20220624143926 91 225 8.0 15.0 0.00 0.00 0.00 35 1007.4
20220624143822 91 221 9.0 19.0 0.00 0.00 0.00 35 1007.3
20220624143726 91 221 8.0 19.0 0.00 0.00 0.00 35 1007.3
20220624143624 91 217 8.0 19.0 0.00 0.00 0.00 36 1007.4
20220624143521 91 265 5.0 19.0 0.00 0.00 0.00 37 1007.4
20220624143411 91 205 9.0 19.0 0.00 0.00 0.00 36 1007.3
20220624143310 91 232 11.0 19.0 0.00 0.00 0.00 35 1007.3
20220624143203 91 227 14.0 19.0 0.00 0.00 0.00 36 1007.3
20220624143101 91 221 7.0 19.0 0.00 0.00 0.00 36 1007.4
20220624143006 91 207 8.0 19.0 0.00 0.00 0.00 35 1007.4
20220624142901 91 225 11.0 19.0 0.00 0.00 0.00 36 1007.3
20220624142801 91 210 12.0 15.0 0.00 0.00 0.00 36 1007.4
20220624142703 91 225 9.0 15.0 0.00 0.00 0.00 36 1007.4
20220624142500 91 240 7.0 17.0 0.00 0.00 0.00 36 1007.3
20220624142402 91 225 9.0 17.0 0.00 0.00 0.00 37 1007.3
20220624142302 91 219 4.0 17.0 0.00 0.00 0.00 36 1007.4
20220624142224 91 223 11.0 17.0 0.00 0.00 0.00 36 1007.4
20220624142101 91 234 6.0 17.0 0.00 0.00 0.00 35 1007.4
20220624142005 91 217 10.0 17.0 0.00 0.00 0.00 34 1007.4
20220624141903 91 222 8.0 17.0 0.00 0.00 0.00 34 1007.4
20220624141805 91 252 15.0 17.0 0.00 0.00 0.00 35 1007.5
20220624141708 91 224 9.0 17.0 0.00 0.00 0.00 36 1007.5
20220624141628 91 212 10.0 17.0 0.00 0.00 0.00 36 1007.5
20220624141506 91 197 13.0 17.0 0.00 0.00 0.00 35 1007.4
20220624141402 91 229 15.0 16.0 0.00 0.00 0.00 35 1007.5
20220624141300 92 220 7.0 16.0 0.00 0.00 0.00 35 1007.6
20220624141204 92 230 9.0 16.0 0.00 0.00 0.00 35 1007.6
20220624141101 92 219 8.0 16.0 0.00 0.00 0.00 37 1007.6
20220624141003 91 205 8.0 16.0 0.00 0.00 0.00 37 1007.6
20220624140901 91 219 4.0 16.0 0.00 0.00 0.00 37 1007.6
20220624140810 91 191 7.0 16.0 0.00 0.00 0.00 36 1007.6
20220624140702 91 215 7.0 16.0 0.00 0.00 0.00 35 1007.7
20220624140622 91 209 9.0 16.0 0.00 0.00 0.00 36 1007.7
20220624140505 92 214 12.0 16.0 0.00 0.00 0.00 37 1007.7
20220624140402 92 171 5.0 16.0 0.00 0.00 0.00 37 1007.7
20220624140308 91 197 7.0 16.0 0.00 0.00 0.00 37 1007.7
20220624140206 91 200 10.0 16.0 0.00 0.00 0.00 38 1007.7
20220624140113 91 217 13.0 15.0 0.00 0.00 0.00 38 1007.6
20220624140004 91 248 13.0 14.0 0.00 0.00 0.00 37 1007.7
20220624135905 91 205 7.0 10.0 0.00 0.00 0.00 38 1007.7
20220624135802 91 255 10.0 11.0 0.00 0.00 0.00 37 1007.8
20220624135704 91 232 8.0 11.0 0.00 0.00 0.00 38 1007.8
20220624135605 91 238 6.0 11.0 0.00 0.00 0.00 38 1007.8
20220624135501 91 265 4.0 12.0 0.00 0.00 0.00 39 1007.7
20220624135401 91 175 2.0 15.0 0.00 0.00 0.00 38 1007.7
20220624135305 91 221 4.0 15.0 0.00 0.00 0.00 36 1007.8
20220624135221 91 198 7.0 15.0 0.00 0.00 0.00 37 1007.8
20220624135123 91 244 7.0 15.0 0.00 0.00 0.00 37 1007.8
20220624135005 91 232 5.0 15.0 0.00 0.00 0.00 38 1007.8
20220624134902 91 240 4.0 15.0 0.00 0.00 0.00 37 1007.9
20220624134802 91 229 8.0 15.0 0.00 0.00 0.00 40 1007.9
20220624134702 91 261 10.0 15.0 0.00 0.00 0.00 39 1008.0
20220624134601 91 218 8.0 15.0 0.00 0.00 0.00 38 1007.9
20220624134503 91 236 13.0 15.0 0.00 0.00 0.00 38 1007.9
20220624134408 91 221 14.0 15.0 0.00 0.00 0.00 38 1007.9
20220624134310 91 297 9.0 13.0 0.00 0.00 0.00 37 1007.9
20220624134202 91 247 9.0 12.0 0.00 0.00 0.00 36 1007.9
20220624134106 91 246 5.0 12.0 0.00 0.00 0.00 36 1008.0
20220624134008 91 200 5.0 12.0 0.00 0.00 0.00 35 1008.0
20220624133905 91 182 4.0 15.0 0.00 0.00 0.00 36 1008.0
20220624133801 91 192 7.0 15.0 0.00 0.00 0.00 37 1008.1
20220624133701 91 221 10.0 15.0 0.00 0.00 0.00 38 1008.0
20220624133610 91 206 10.0 15.0 0.00 0.00 0.00 38 1008.0
20220624133503 91 280 6.0 15.0 0.00 0.00 0.00 37 1008.1
20220624133402 91 250 7.0 15.0 0.00 0.00 0.00 38 1008.1
20220624133303 91 273 5.0 15.0 0.00 0.00 0.00 37 1008.1
20220624133222 91 224 3.0 15.0 0.00 0.00 0.00 37 1008.1
20220624133105 91 217 7.0 15.0 0.00 0.00 0.00 38 1008.1
20220624133005 91 240 6.0 18.0 0.00 0.00 0.00 38 1008.1
20220624132903 91 203 12.0 18.0 0.00 0.00 0.00 37 1008.1
20220624132801 91 211 6.0 18.0 0.00 0.00 0.00 38 1008.1
20220624132705 91 209 10.0 18.0 0.00 0.00 0.00 38 1008.1
20220624132603 91 217 10.0 18.0 0.00 0.00 0.00 39 1008.1
20220624132505 91 214 9.0 18.0 0.00 0.00 0.00 37 1008.2
20220624132407 91 230 11.0 18.0 0.00 0.00 0.00 37 1008.1
20220624132321 91 214 14.0 18.0 0.00 0.00 0.00 37 1008.1
20220624132201 91 187 8.0 21.0 0.00 0.00 0.00 37 1008.2
20220624132101 91 219 9.0 21.0 0.00 0.00 0.00 35 1008.2
20220624132006 91 225 11.0 21.0 0.00 0.00 0.00 36 1008.2
20220624131900 91 205 11.0 21.0 0.00 0.00 0.00 37 1008.2
20220624131802 91 223 7.0 21.0 0.00 0.00 0.00 36 1008.3
20220624131722 91 204 11.0 21.0 0.00 0.00 0.00 36 1008.3
20220624131620 91 200 9.0 21.0 0.00 0.00 0.00 36 1008.3
20220624131501 91 223 14.0 21.0 0.00 0.00 0.00 36 1008.3
20220624131403 91 240 7.0 21.0 0.00 0.00 0.00 37 1008.3
20220624131300 90 171 10.0 21.0 0.00 0.00 0.00 37 1008.2
20220624131222 90 194 12.0 21.0 0.00 0.00 0.00 37 1008.2
20220624131104 90 270 10.0 17.0 0.00 0.00 0.00 36 1008.3
20220624131009 90 269 8.0 17.0 0.00 0.00 0.00 36 1008.3
20220624130902 90 277 10.0 17.0 0.00 0.00 0.00 36 1008.5
20220624130805 90 239 15.0 17.0 0.00 0.00 0.00 36 1008.5
20220624130700 91 254 13.0 17.0 0.00 0.00 0.00 36 1008.5
20220624130604 91 242 7.0 17.0 0.00 0.00 0.00 35 1008.6
20220624130505 91 259 9.0 17.0 0.00 0.00 0.00 37 1008.6
20220624130401 90 268 8.0 18.0 0.00 0.00 0.00 37 1008.7
20220624130301 90 220 9.0 21.0 0.00 0.00 0.00 37 1008.7
20220624130202 90 221 14.0 22.0 0.00 0.00 0.00 36 1008.7
20220624130116 90 212 11.0 22.0 0.00 0.00 0.00 36 1008.7
20220624130007 90 215 12.0 22.0 0.00 0.00 0.00 36 1008.7
20220624125901 90 211 12.0 22.0 0.00 0.00 0.00 36 1008.7
20220624125804 90 246 11.0 22.0 0.00 0.00 0.00 37 1008.8
20220624125702 90 248 12.0 22.0 0.00 0.00 0.00 39 1008.8
20220624125605 90 244 11.0 22.0 0.00 0.00 0.00 37 1008.8
20220624125504 90 212 9.0 22.0 0.00 0.00 0.00 35 1008.8
20220624125423 90 230 12.0 22.0 0.00 0.00 0.00 35 1008.8
20220624125303 90 223 14.0 22.0 0.00 0.00 0.00 35 1008.8
20220624125203 90 259 7.0 20.0 0.00 0.00 0.00 36 1008.8
20220624125111 90 240 10.0 20.0 0.00 0.00 0.00 36 1008.8
20220624125006 91 248 13.0 20.0 0.00 0.00 0.00 35 1008.8
20220624124903 91 255 12.0 20.0 0.00 0.00 0.00 35 1008.7
20220624124808 91 212 8.0 20.0 0.00 0.00 0.00 33 1008.7
20220624124701 91 238 17.0 20.0 0.00 0.00 0.00 34 1008.6
20220624124606 91 207 16.0 21.0 0.00 0.00 0.00 35 1008.7
20220624124525 91 240 8.0 21.0 0.00 0.00 0.00 36 1008.7
20220624124400 91 234 10.0 22.0 0.00 0.00 0.00 34 1008.7
20220624124302 91 222 12.0 22.0 0.00 0.00 0.00 35 1008.8
20220624124205 91 221 13.0 22.0 0.00 0.00 0.00 35 1008.7
20220624124102 91 209 10.0 22.0 0.00 0.00 0.00 35 1008.9
20220624124000 91 250 8.0 22.0 0.00 0.00 0.00 35 1008.8
20220624123906 91 227 11.0 22.0 0.00 0.00 0.00 33 1008.8
20220624123802 91 216 12.0 22.0 0.00 0.00 0.00 34 1008.9
20220624123721 91 192 11.0 26.0 0.00 0.00 0.00 34 1008.9
20220624123603 91 207 15.0 26.0 0.00 0.00 0.00 36 1008.8
20220624123502 90 211 15.0 26.0 0.00 0.00 0.00 36 1008.8
20220624123401 90 197 16.0 26.0 0.00 0.00 0.00 38 1008.8
20220624123323 90 223 10.0 26.0 0.00 0.00 0.00 37 1008.8
20220624123200 90 257 16.0 26.0 0.00 0.00 0.00 35 1008.8
20220624123102 90 231 18.0 26.0 0.00 0.00 0.00 35 1008.9
20220624123003 90 227 14.0 26.0 0.00 0.00 0.00 35 1008.9
20220624122900 90 209 15.0 26.0 0.00 0.00 0.00 34 1008.8
20220624122800 90 217 17.0 26.0 0.00 0.00 0.00 34 1008.9
20220624122702 90 208 19.0 23.0 0.00 0.00 0.00 35 1008.9
20220624122608 90 202 15.0 23.0 0.00 0.00 0.00 34 1008.9
20220624122504 90 213 16.0 23.0 0.00 0.00 0.00 34 1008.9
20220624122404 90 211 21.0 26.0 0.00 0.00 0.00 34 1009.0
20220624122302 90 224 9.0 26.0 0.00 0.00 0.00 35 1008.9
20220624122223 90 215 13.0 30.0 0.00 0.00 0.00 37 1008.9
20220624122104 90 242 17.0 30.0 0.00 0.00 0.00 36 1008.9
20220624122006 90 219 15.0 30.0 0.00 0.00 0.00 36 1009.0
20220624121902 90 222 16.0 30.0 0.00 0.00 0.00 38 1009.0
20220624121801 90 259 11.0 30.0 0.00 0.00 0.00 37 1009.0
20220624121706 90 237 16.0 30.0 0.00 0.00 0.00 36 1008.9
20220624121602 90 213 15.0 30.0 0.00 0.00 0.00 36 1009.0
20220624121503 89 234 17.0 30.0 0.00 0.00 0.00 37 1008.9
20220624121408 89 211 18.0 30.0 0.00 0.00 0.00 35 1008.9
20220624121301 89 233 17.0 30.0 0.00 0.00 0.00 35 1008.9
20220624121201 89 232 26.0 28.0 0.00 0.00 0.00 36 1008.9
20220624121103 89 219 24.0 24.0 0.00 0.00 0.00 36 1008.9
20220624121034 89 215 14.0 24.0 0.00 0.00 0.00 35 1008.9
20220624120903 90 235 22.0 23.0 0.00 0.00 0.00 36 1009.0
20220624120806 89 209 13.0 23.0 0.00 0.00 0.00 35 1008.9
20220624120702 89 219 22.0 22.0 0.00 0.00 0.00 38 1008.9
20220624120620 89 219 11.0 26.0 0.00 0.00 0.00 37 1008.9
20220624120505 89 223 15.0 26.0 0.00 0.00 0.00 37 1008.9
20220624120402 89 225 10.0 26.0 0.00 0.00 0.00 36 1008.9
20220624120302 89 236 17.0 26.0 0.00 0.00 0.00 37 1009.0
20220624120212 89 209 8.0 26.0 0.00 0.00 0.00 36 1009.0
20220624120147 89 236 10.0 26.0 0.00 0.00 0.00 37 1009.0
20220624120041 89 220 9.0 26.0 0.00 0.00 0.00 37 1009.0
20220624115905 89 233 10.0 26.0 0.00 0.00 0.00 37 1009.0
20220624115802 89 222 9.0 26.0 0.00 0.00 0.00 37 1009.0
20220624115702 89 232 18.0 26.0 0.00 0.00 0.00 36 1009.0
20220624115603 89 221 20.0 24.0 0.00 0.00 0.00 36 1009.0
20220624115501 89 198 13.0 24.0 0.00 0.00 0.00 37 1009.0
20220624115419 89 195 11.0 24.0 0.00 0.00 0.00 36 1009.0
20220624115302 89 202 20.0 24.0 0.00 0.00 0.00 36 1009.1
20220624115216 89 193 15.0 22.0 0.00 0.00 0.00 37 1009.1
20220624115104 89 208 16.0 20.0 0.00 0.00 0.00 39 1009.1
20220624115032 89 183 19.0 21.0 0.00 0.00 0.00 39 1009.1
20220624114901 89 237 13.0 20.0 0.00 0.00 0.00 38 1009.1
20220624114824 89 243 12.0 20.0 0.00 0.00 0.00 38 1009.1
20220624114702 89 235 16.0 20.0 0.00 0.00 0.00 39 1009.2
20220624114602 89 238 17.0 20.0 0.00 0.00 0.00 38 1009.2
20220624114502 89 244 20.0 20.0 0.00 0.00 0.00 37 1009.2
20220624114404 89 218 17.0 20.0 0.00 0.00 0.00 38 1009.3
20220624114302 89 225 18.0 20.0 0.00 0.00 0.00 40 1009.3
20220624114220 89 196 11.0 19.0 0.00 0.00 0.00 39 1009.3
20220624114103 89 234 6.0 21.0 0.00 0.00 0.00 41 1009.3
20220624114003 89 197 7.0 21.0 0.00 0.00 0.00 39 1009.2
20220624113902 89 211 7.0 21.0 0.00 0.00 0.00 40 1009.3
20220624113803 89 235 12.0 21.0 0.00 0.00 0.00 40 1009.3
20220624113702 89 224 10.0 21.0 0.00 0.00 0.00 39 1009.3
20220624113602 89 223 15.0 21.0 0.00 0.00 0.00 39 1009.3
20220624113505 89 198 12.0 21.0 0.00 0.00 0.00 41 1009.3
20220624113400 88 213 8.0 21.0 0.00 0.00 0.00 41 1009.3
20220624113302 88 225 11.0 21.0 0.00 0.00 0.00 40 1009.3
20220624113205 88 229 12.0 21.0 0.00 0.00 0.00 40 1009.3
20220624113103 88 213 20.0 21.0 0.00 0.00 0.00 39 1009.3
20220624113008 88 218 16.0 22.0 0.00 0.00 0.00 39 1009.3
20220624112904 88 228 22.0 22.0 0.00 0.00 0.00 41 1009.3
20220624112802 88 229 18.0 22.0 0.00 0.00 0.00 39 1009.3
20220624112702 88 194 14.0 22.0 0.00 0.00 0.00 40 1009.3
20220624112602 88 220 16.0 22.0 0.00 0.00 0.00 41 1009.3
20220624112503 88 234 10.0 22.0 0.00 0.00 0.00 41 1009.4
20220624112402 88 229 13.0 24.0 0.00 0.00 0.00 40 1009.3
20220624112305 88 210 16.0 24.0 0.00 0.00 0.00 39 1009.3
20220624112201 88 236 14.0 24.0 0.00 0.00 0.00 40 1009.4
20220624112101 88 224 18.0 24.0 0.00 0.00 0.00 40 1009.3
20220624112031 88 225 11.0 24.0 0.00 0.00 0.00 40 1009.3
20220624111902 88 221 17.0 24.0 0.00 0.00 0.00 40 1009.4
20220624111801 88 219 16.0 24.0 0.00 0.00 0.00 40 1009.4
20220624111704 88 230 18.0 24.0 0.00 0.00 0.00 40 1009.4
20220624111602 88 221 16.0 24.0 0.00 0.00 0.00 38 1009.4
20220624111503 88 219 18.0 24.0 0.00 0.00 0.00 39 1009.3
20220624111425 88 219 20.0 24.0 0.00 0.00 0.00 39 1009.3
20220624111322 88 216 12.0 28.0 0.00 0.00 0.00 40 1009.4
20220624111205 88 250 16.0 28.0 0.00 0.00 0.00 40 1009.3
20220624111104 88 213 16.0 28.0 0.00 0.00 0.00 39 1009.3
20220624111030 88 220 20.0 28.0 0.00 0.00 0.00 39 1009.3
20220624110902 89 227 16.0 28.0 0.00 0.00 0.00 39 1009.4
20220624110804 89 225 19.0 28.0 0.00 0.00 0.00 39 1009.4
20220624110723 88 247 16.0 28.0 0.00 0.00 0.00 39 1009.4
20220624110603 88 215 19.0 28.0 0.00 0.00 0.00 38 1009.4
20220624110506 89 204 19.0 28.0 0.00 0.00 0.00 38 1009.4
20220624110401 89 215 18.0 28.0 0.00 0.00 0.00 39 1009.3
20220624110300 89 245 14.0 26.0 0.00 0.00 0.00 37 1009.3
20220624110226 89 232 18.0 26.0 0.00 0.00 0.00 37 1009.3
20220624110136 89 229 17.0 26.0 0.00 0.00 0.00 36 1009.4
20220624110004 88 202 18.0 26.0 0.00 0.00 0.00 37 1009.3
20220624105904 88 209 15.0 24.0 0.00 0.00 0.00 37 1009.3
20220624105802 88 215 20.0 24.0 0.00 0.00 0.00 38 1009.4
20220624105702 88 176 13.0 23.0 0.00 0.00 0.00 40 1009.3
20220624105605 88 203 17.0 21.0 0.00 0.00 0.00 39 1009.4
20220624105503 88 254 13.0 21.0 0.00 0.00 0.00 40 1009.4
20220624105402 88 199 15.0 21.0 0.00 0.00 0.00 41 1009.5
20220624105326 88 197 16.0 21.0 0.00 0.00 0.00 40 1009.5
20220624105204 88 218 10.0 21.0 0.00 0.00 0.00 41 1009.4
20220624105128 88 207 18.0 21.0 0.00 0.00 0.00 41 1009.4
20220624105005 88 215 11.0 21.0 0.00 0.00 0.00 40 1009.4
20220624104901 88 204 19.0 22.0 0.00 0.00 0.00 41 1009.5
20220624104801 87 184 21.0 22.0 0.00 0.00 0.00 42 1009.5
20220624104704 87 222 14.0 24.0 0.00 0.00 0.00 40 1009.5
20220624104602 87 238 16.0 24.0 0.00 0.00 0.00 42 1009.5
20220624104504 87 240 16.0 24.0 0.00 0.00 0.00 43 1009.5
20220624104403 87 262 13.0 24.0 0.00 0.00 0.00 41 1009.4
20220624104301 88 232 17.0 24.0 0.00 0.00 0.00 41 1009.4
20220624104204 88 225 12.0 24.0 0.00 0.00 0.00 41 1009.5
20220624104104 88 225 13.0 27.0 0.00 0.00 0.00 41 1009.5
20220624104003 88 212 15.0 27.0 0.00 0.00 0.00 42 1009.4
20220624103900 88 225 18.0 27.0 0.00 0.00 0.00 41 1009.5
20220624103808 88 231 17.0 27.0 0.00 0.00 0.00 41 1009.5
20220624103703 88 196 13.0 27.0 0.00 0.00 0.00 42 1009.5
20220624103605 87 204 18.0 27.0 0.00 0.00 0.00 41 1009.4
20220624103505 87 219 14.0 27.0 0.00 0.00 0.00 40 1009.5
20220624103403 87 227 16.0 27.0 0.00 0.00 0.00 39 1009.5
20220624103326 87 217 14.0 27.0 0.00 0.00 0.00 39 1009.5
20220624103203 87 217 20.0 27.0 0.00 0.00 0.00 38 1009.4
20220624103101 88 221 22.0 27.0 0.00 0.00 0.00 39 1009.5
20220624103000 88 236 21.0 26.0 0.00 0.00 0.00 39 1009.5
20220624102902 88 214 18.0 22.0 0.00 0.00 0.00 40 1009.5
20220624102822 88 213 15.0 22.0 0.00 0.00 0.00 40 1009.5
20220624102701 87 201 18.0 22.0 0.00 0.00 0.00 39 1009.5
20220624102607 87 221 15.0 21.0 0.00 0.00 0.00 40 1009.6
20220624102501 87 224 13.0 22.0 0.00 0.00 0.00 42 1009.5
20220624102400 87 238 16.0 22.0 0.00 0.00 0.00 42 1009.5
20220624102303 87 201 14.0 22.0 0.00 0.00 0.00 39 1009.5
20220624102201 87 233 13.0 20.0 0.00 0.00 0.00 41 1009.4
20220624102105 87 223 14.0 20.0 0.00 0.00 0.00 40 1009.4
20220624102008 87 254 7.0 20.0 0.00 0.00 0.00 40 1009.4
20220624101905 87 225 12.0 20.0 0.00 0.00 0.00 38 1009.5
20220624101805 87 211 18.0 22.0 0.00 0.00 0.00 41 1009.5
20220624101704 87 223 10.0 22.0 0.00 0.00 0.00 42 1009.5
20220624101600 87 215 14.0 22.0 0.00 0.00 0.00 42 1009.5
20220624101502 87 225 16.0 22.0 0.00 0.00 0.00 41 1009.5
20220624101403 87 236 12.0 22.0 0.00 0.00 0.00 41 1009.5
20220624101301 87 252 8.0 22.0 0.00 0.00 0.00 41 1009.4
20220624101205 87 215 16.0 22.0 0.00 0.00 0.00 39 1009.5
20220624101104 87 229 16.0 22.0 0.00 0.00 0.00 41 1009.5
20220624101003 87 227 14.0 22.0 0.00 0.00 0.00 41 1009.4
20220624100904 87 216 21.0 21.0 0.00 0.00 0.00 42 1009.5
20220624100803 87 230 11.0 20.0 0.00 0.00 0.00 42 1009.4
20220624100703 87 236 11.0 20.0 0.00 0.00 0.00 43 1009.4
20220624100602 86 209 8.0 20.0 0.00 0.00 0.00 43 1009.4
20220624100507 86 218 13.0 20.0 0.00 0.00 0.00 42 1009.4
20220624100406 86 232 14.0 20.0 0.00 0.00 0.00 43 1009.4
20220624100305 86 231 10.0 17.0 0.00 0.00 0.00 42 1009.3
20220624100200 86 242 12.0 19.0 0.00 0.00 0.00 43 1009.4
20220624100147 86 248 10.0 19.0 0.00 0.00 0.00 43 1009.4
20220624100038 86 217 11.0 19.0 0.00 0.00 0.00 44 1009.4
20220624095900 86 211 8.0 19.0 0.00 0.00 0.00 46 1009.4
20220624095802 86 311 6.0 19.0 0.00 0.00 0.00 45 1009.4
20220624095704 86 257 11.0 19.0 0.00 0.00 0.00 44 1009.5
20220624095603 86 240 14.0 19.0 0.00 0.00 0.00 43 1009.4
20220624095504 87 250 9.0 19.0 0.00 0.00 0.00 43 1009.4
20220624095405 87 240 7.0 19.0 0.00 0.00 0.00 44 1009.4
20220624095302 87 219 10.0 19.0 0.00 0.00 0.00 43 1009.4
20220624095204 87 213 18.0 22.0 0.00 0.00 0.00 43 1009.4
20220624095101 87 192 9.0 24.0 0.00 0.00 0.00 42 1009.4
20220624095001 87 230 18.0 24.0 0.00 0.00 0.00 44 1009.4
20220624094904 87 262 9.0 24.0 0.00 0.00 0.00 44 1009.4
20220624094830 87 210 10.0 24.0 0.00 0.00 0.00 46 1009.4
20220624094705 86 216 10.0 24.0 0.00 0.00 0.00 47 1009.4
20220624094605 86 225 14.0 24.0 0.00 0.00 0.00 44 1009.4
20220624094508 86 241 15.0 24.0 0.00 0.00 0.00 45 1009.4
20220624094404 86 230 11.0 24.0 0.00 0.00 0.00 44 1009.4
20220624094324 86 222 16.0 24.0 0.00 0.00 0.00 44 1009.4
20220624094208 86 229 16.0 24.0 0.00 0.00 0.00 44 1009.3
20220624094105 86 212 21.0 24.0 0.00 0.00 0.00 45 1009.4
20220624094004 86 231 8.0 22.0 0.00 0.00 0.00 45 1009.4
20220624093904 85 190 9.0 22.0 0.00 0.00 0.00 45 1009.4
20220624093802 85 218 18.0 22.0 0.00 0.00 0.00 46 1009.5
20220624093705 85 220 12.0 22.0 0.00 0.00 0.00 46 1009.4
20220624093605 85 227 15.0 22.0 0.00 0.00 0.00 47 1009.4
20220624093502 85 196 12.0 22.0 0.00 0.00 0.00 48 1009.4
20220624093421 85 232 10.0 22.0 0.00 0.00 0.00 47 1009.4
20220624093305 85 227 12.0 22.0 0.00 0.00 0.00 47 1009.4
20220624093205 85 229 14.0 22.0 0.00 0.00 0.00 48 1009.4
20220624093107 85 239 18.0 22.0 0.00 0.00 0.00 46 1009.4
20220624093007 85 232 16.0 22.0 0.00 0.00 0.00 45 1009.4
20220624092921 85 214 18.0 22.0 0.00 0.00 0.00 45 1009.4
20220624092800 85 226 16.0 22.0 0.00 0.00 0.00 45 1009.4
20220624092701 85 205 14.0 22.0 0.00 0.00 0.00 46 1009.5
20220624092626 85 196 13.0 22.0 0.00 0.00 0.00 45 1009.5
20220624092505 85 225 14.0 22.0 0.00 0.00 0.00 45 1009.6
20220624092402 85 238 16.0 22.0 0.00 0.00 0.00 47 1009.6
20220624092305 85 198 12.0 21.0 0.00 0.00 0.00 47 1009.6
20220624092217 85 229 17.0 21.0 0.00 0.00 0.00 46 1009.6
20220624092106 84 217 11.0 21.0 0.00 0.00 0.00 47 1009.7
20220624092007 84 211 12.0 21.0 0.00 0.00 0.00 47 1009.7
20220624091900 85 221 16.0 21.0 0.00 0.00 0.00 48 1009.8
20220624091802 85 236 15.0 21.0 0.00 0.00 0.00 47 1009.7
20220624091708 85 234 15.0 21.0 0.00 0.00 0.00 49 1009.6
20220624091603 85 262 16.0 21.0 0.00 0.00 0.00 48 1009.6
20220624091501 85 241 14.0 21.0 0.00 0.00 0.00 48 1009.7
20220624091407 85 241 11.0 21.0 0.00 0.00 0.00 48 1009.8
20220624091303 85 225 16.0 21.0 0.00 0.00 0.00 48 1009.8
20220624091200 85 222 14.0 21.0 0.00 0.00 0.00 48 1009.8
20220624091129 85 202 14.0 21.0 0.00 0.00 0.00 48 1009.8
20220624091001 85 232 13.0 19.0 0.00 0.00 0.00 48 1009.6
20220624090905 85 255 11.0 19.0 0.00 0.00 0.00 48 1009.8
20220624090810 85 204 12.0 17.0 0.00 0.00 0.00 48 1009.7
20220624090703 84 240 15.0 17.0 0.00 0.00 0.00 49 1009.6
20220624090603 84 227 4.0 17.0 0.00 0.00 0.00 50 1009.7
20220624090503 84 204 9.0 17.0 0.00 0.00 0.00 50 1009.7
20220624090408 84 227 9.0 17.0 0.00 0.00 0.00 50 1009.7
20220624090302 84 232 14.0 17.0 0.00 0.00 0.00 50 1009.6
20220624090225 84 240 8.0 17.0 0.00 0.00 0.00 49 1009.6
20220624090113 84 252 10.0 16.0 0.00 0.00 0.00 49 1009.6
20220624090005 85 258 13.0 16.0 0.00 0.00 0.00 49 1009.6
20220624085905 85 223 11.0 16.0 0.00 0.00 0.00 49 1009.6
20220624085801 85 221 11.0 18.0 0.00 0.00 0.00 49 1009.7
20220624085705 85 240 8.0 18.0 0.00 0.00 0.00 49 1009.7
20220624085604 85 219 10.0 18.0 0.00 0.00 0.00 50 1009.7
20220624085503 85 249 13.0 18.0 0.00 0.00 0.00 50 1009.8
20220624085401 84 219 12.0 18.0 0.00 0.00 0.00 50 1009.7
20220624085306 84 211 7.0 18.0 0.00 0.00 0.00 51 1009.7
20220624085200 84 213 7.0 18.0 0.00 0.00 0.00 50 1009.6
20220624085100 84 272 9.0 18.0 0.00 0.00 0.00 49 1009.6
20220624085034 84 263 8.0 18.0 0.00 0.00 0.00 49 1009.6
20220624084901 84 219 10.0 18.0 0.00 0.00 0.00 50 1009.6
20220624084804 85 216 10.0 16.0 0.00 0.00 0.00 49 1009.6
20220624084704 85 191 10.0 16.0 0.00 0.00 0.00 50 1009.7
20220624084602 85 220 12.0 16.0 0.00 0.00 0.00 50 1009.7
20220624084520 85 237 12.0 16.0 0.00 0.00 0.00 51 1009.7
20220624084424 84 234 12.0 16.0 0.00 0.00 0.00 52 1009.9
20220624084302 84 209 8.0 16.0 0.00 0.00 0.00 51 1009.7
20220624084202 84 218 7.0 16.0 0.00 0.00 0.00 51 1009.7
20220624084103 84 196 7.0 16.0 0.00 0.00 0.00 51 1009.8
20220624084003 84 249 8.0 16.0 0.00 0.00 0.00 51 1009.7
20220624083902 84 215 9.0 16.0 0.00 0.00 0.00 52 1009.7
20220624083803 84 218 7.0 17.0 0.00 0.00 0.00 52 1009.8
20220624083723 84 229 5.0 21.0 0.00 0.00 0.00 52 1009.8
20220624083628 84 232 9.0 21.0 0.00 0.00 0.00 52 1009.8
20220624083522 84 240 9.0 21.0 0.00 0.00 0.00 51 1009.8
20220624083426 84 222 7.0 21.0 0.00 0.00 0.00 51 1009.9
20220624083302 83 204 14.0 21.0 0.00 0.00 0.00 51 1010.0
20220624083200 83 229 11.0 21.0 0.00 0.00 0.00 51 1010.0
20220624083102 83 223 12.0 21.0 0.00 0.00 0.00 52 1010.0
20220624083004 83 206 11.0 21.0 0.00 0.00 0.00 51 1010.0
20220624082904 83 234 14.0 21.0 0.00 0.00 0.00 51 1010.0
20220624082803 83 227 15.0 21.0 0.00 0.00 0.00 51 1010.0
20220624082702 83 228 21.0 21.0 0.00 0.00 0.00 51 1010.1
20220624082602 83 235 14.0 21.0 0.00 0.00 0.00 51 1010.0
20220624082502 83 228 12.0 21.0 0.00 0.00 0.00 51 1010.0
20220624082410 83 234 14.0 21.0 0.00 0.00 0.00 50 1010.0
20220624082305 83 217 16.0 21.0 0.00 0.00 0.00 49 1010.1
20220624082201 83 212 20.0 21.0 0.00 0.00 0.00 50 1010.1
20220624082121 83 227 17.0 21.0 0.00 0.00 0.00 51 1010.1
20220624082003 83 226 14.0 21.0 0.00 0.00 0.00 51 1010.1
20220624081902 83 209 11.0 21.0 0.00 0.00 0.00 50 1010.1
20220624081803 83 193 13.0 21.0 0.00 0.00 0.00 50 1010.2
20220624081700 83 219 15.0 21.0 0.00 0.00 0.00 51 1010.1
20220624081600 83 220 17.0 21.0 0.00 0.00 0.00 53 1010.2
20220624081502 83 202 10.0 21.0 0.00 0.00 0.00 53 1010.2
20220624081400 83 227 13.0 21.0 0.00 0.00 0.00 52 1010.2
20220624081304 83 225 11.0 21.0 0.00 0.00 0.00 52 1010.2
20220624081203 83 219 10.0 21.0 0.00 0.00 0.00 51 1010.2
20220624081103 83 234 9.0 21.0 0.00 0.00 0.00 50 1010.2
20220624081005 83 228 19.0 21.0 0.00 0.00 0.00 50 1010.3
20220624080905 83 218 13.0 20.0 0.00 0.00 0.00 52 1010.3
20220624080807 83 213 8.0 20.0 0.00 0.00 0.00 52 1010.2
20220624080710 83 236 16.0 20.0 0.00 0.00 0.00 52 1010.3
20220624080602 83 180 15.0 20.0 0.00 0.00 0.00 53 1010.2
20220624080522 83 207 13.0 20.0 0.00 0.00 0.00 54 1010.2
20220624080400 83 235 9.0 16.0 0.00 0.00 0.00 54 1010.2
20220624080323 83 209 12.0 16.0 0.00 0.00 0.00 54 1010.2
20220624080205 83 209 10.0 17.0 0.00 0.00 0.00 55 1010.3
20220624080114 83 220 11.0 17.0 0.00 0.00 0.00 54 1010.3
20220624080004 83 231 10.0 17.0 0.00 0.00 0.00 54 1010.3
20220624075903 83 239 9.0 17.0 0.00 0.00 0.00 54 1010.3
20220624075801 83 235 7.0 17.0 0.00 0.00 0.00 55 1010.4
20220624075700 83 231 10.0 17.0 0.00 0.00 0.00 54 1010.3
20220624075603 83 233 9.0 17.0 0.00 0.00 0.00 53 1010.3
20220624075500 83 195 7.0 17.0 0.00 0.00 0.00 52 1010.3
20220624075400 83 203 13.0 17.0 0.00 0.00 0.00 53 1010.3
20220624075320 83 203 11.0 17.0 0.00 0.00 0.00 53 1010.3
20220624075203 83 196 7.0 18.0 0.00 0.00 0.00 53 1010.3
20220624075104 83 208 9.0 18.0 0.00 0.00 0.00 53 1010.3
20220624075006 83 208 9.0 18.0 0.00 0.00 0.00 53 1010.3
20220624074903 83 208 9.0 18.0 0.00 0.00 0.00 53 1010.3
20220624074800 83 221 14.0 18.0 0.00 0.00 0.00 53 1010.2
20220624074705 83 221 14.0 18.0 0.00 0.00 0.00 53 1010.2
20220624074602 83 221 18.0 18.0 0.00 0.00 0.00 54 1010.3
20220624074502 82 190 11.0 18.0 0.00 0.00 0.00 55 1010.3
20220624074404 82 233 14.0 18.0 0.00 0.00 0.00 56 1010.4
20220624074302 82 238 6.0 18.0 0.00 0.00 0.00 55 1010.4
20220624074202 82 242 8.0 18.0 0.00 0.00 0.00 56 1010.3
20220624074102 82 198 8.0 18.0 0.00 0.00 0.00 56 1010.3
20220624074003 82 215 8.0 18.0 0.00 0.00 0.00 56 1010.3
20220624073900 82 199 8.0 18.0 0.00 0.00 0.00 54 1010.3
20220624073804 82 226 10.0 18.0 0.00 0.00 0.00 54 1010.3
20220624073717 82 210 19.0 19.0 0.00 0.00 0.00 54 1010.3
20220624073602 82 203 13.0 19.0 0.00 0.00 0.00 54 1010.3
20220624073502 82 213 11.0 21.0 0.00 0.00 0.00 53 1010.3
20220624073400 82 217 13.0 21.0 0.00 0.00 0.00 54 1010.2
20220624073306 83 240 9.0 21.0 0.00 0.00 0.00 55 1010.3
20220624073226 83 247 14.0 21.0 0.00 0.00 0.00 55 1010.3
20220624073102 82 204 7.0 21.0 0.00 0.00 0.00 56 1010.3
20220624073002 82 194 8.0 21.0 0.00 0.00 0.00 55 1010.3
20220624072904 82 213 8.0 21.0 0.00 0.00 0.00 55 1010.3
20220624072802 82 211 12.0 21.0 0.00 0.00 0.00 55 1010.3
20220624072702 82 233 13.0 21.0 0.00 0.00 0.00 55 1010.3
20220624072605 82 214 10.0 21.0 0.00 0.00 0.00 54 1010.2
20220624072503 82 227 21.0 21.0 0.00 0.00 0.00 54 1010.3
20220624072401 82 202 14.0 21.0 0.00 0.00 0.00 55 1010.3
20220624072323 82 207 15.0 21.0 0.00 0.00 0.00 56 1010.3
20220624072201 82 227 15.0 22.0 0.00 0.00 0.00 56 1010.4
20220624072101 82 225 10.0 22.0 0.00 0.00 0.00 55 1010.4
20220624072032 82 242 7.0 22.0 0.00 0.00 0.00 55 1010.4
20220624071903 82 221 18.0 22.0 0.00 0.00 0.00 54 1010.3
20220624071824 82 221 18.0 22.0 0.00 0.00 0.00 55 1010.3
20220624071704 82 216 11.0 22.0 0.00 0.00 0.00 56 1010.4
20220624071602 82 234 12.0 22.0 0.00 0.00 0.00 56 1010.4
20220624071502 82 188 10.0 22.0 0.00 0.00 0.00 55 1010.3
20220624071405 82 213 11.0 22.0 0.00 0.00 0.00 55 1010.4
20220624071302 82 227 14.0 22.0 0.00 0.00 0.00 55 1010.3
20220624071202 82 196 16.0 22.0 0.00 0.00 0.00 56 1010.3
20220624071102 82 211 16.0 22.0 0.00 0.00 0.00 55 1010.3
20220624071005 82 212 20.0 21.0 0.00 0.00 0.00 56 1010.3
20220624070904 82 205 17.0 19.0 0.00 0.00 0.00 56 1010.4
20220624070805 81 200 10.0 19.0 0.00 0.00 0.00 56 1010.4
20220624070701 81 218 14.0 19.0 0.00 0.00 0.00 57 1010.3
20220624070602 81 203 16.0 19.0 0.00 0.00 0.00 57 1010.3
20220624070508 81 190 17.0 19.0 0.00 0.00 0.00 56 1010.3
20220624070400 81 196 16.0 22.0 0.00 0.00 0.00 56 1010.3
20220624070303 81 186 16.0 22.0 0.00 0.00 0.00 57 1010.3
20220624070223 81 198 9.0 22.0 0.00 0.00 0.00 57 1010.3
20220624070113 81 192 12.0 22.0 0.00 0.00 0.00 58 1010.2
20220624070005 81 215 17.0 22.0 0.00 0.00 0.00 58 1010.3
20220624065904 81 199 9.0 22.0 0.00 0.00 0.00 58 1010.2
20220624065823 81 200 13.0 22.0 0.00 0.00 0.00 57 1010.2
20220624065702 81 204 12.0 22.0 0.00 0.00 0.00 58 1010.2
20220624065606 81 207 13.0 22.0 0.00 0.00 0.00 58 1010.2
20220624065501 81 217 12.0 22.0 0.00 0.00 0.00 57 1010.2
20220624065404 81 202 16.0 20.0 0.00 0.00 0.00 58 1010.2
20220624065300 81 211 10.0 20.0 0.00 0.00 0.00 58 1010.2
20220624065228 81 187 18.0 20.0 0.00 0.00 0.00 58 1010.2
20220624065108 81 188 14.0 16.0 0.00 0.00 0.00 59 1010.2
20220624065003 81 209 12.0 16.0 0.00 0.00 0.00 58 1010.2
20220624064905 81 199 10.0 16.0 0.00 0.00 0.00 58 1010.2
20220624064803 81 225 12.0 17.0 0.00 0.00 0.00 59 1010.2
20220624064701 81 211 12.0 17.0 0.00 0.00 0.00 59 1010.2
20220624064603 81 198 12.0 17.0 0.00 0.00 0.00 58 1010.2
20220624064501 81 207 13.0 17.0 0.00 0.00 0.00 60 1010.2
20220624064401 81 225 12.0 17.0 0.00 0.00 0.00 59 1010.2
20220624064322 81 210 9.0 17.0 0.00 0.00 0.00 60 1010.2
20220624064202 81 211 14.0 17.0 0.00 0.00 0.00 60 1010.3
20220624064101 81 228 11.0 17.0 0.00 0.00 0.00 59 1010.3
20220624064005 81 190 14.0 17.0 0.00 0.00 0.00 59 1010.3
20220624063901 81 190 14.0 17.0 0.00 0.00 0.00 58 1010.3
20220624063822 81 190 14.0 17.0 0.00 0.00 0.00 59 1010.3
20220624063703 81 196 14.0 16.0 0.00 0.00 0.00 59 1010.3
20220624063601 81 212 10.0 16.0 0.00 0.00 0.00 60 1010.3
20220624063503 80 205 11.0 16.0 0.00 0.00 0.00 62 1010.2
20220624063405 80 194 9.0 16.0 0.00 0.00 0.00 62 1010.3
20220624063302 80 225 9.0 16.0 0.00 0.00 0.00 61 1010.3
20220624063204 80 209 7.0 16.0 0.00 0.00 0.00 61 1010.3
20220624063105 80 230 9.0 16.0 0.00 0.00 0.00 61 1010.3
20220624063007 80 219 6.0 16.0 0.00 0.00 0.00 61 1010.3
20220624062904 80 221 12.0 16.0 0.00 0.00 0.00 61 1010.3
20220624062811 80 221 13.0 16.0 0.00 0.00 0.00 62 1010.3
20220624062703 80 228 14.0 16.0 0.00 0.00 0.00 62 1010.2
20220624062604 80 209 11.0 15.0 0.00 0.00 0.00 62 1010.2
20220624062510 80 209 12.0 15.0 0.00 0.00 0.00 63 1010.2
20220624062402 80 206 7.0 15.0 0.00 0.00 0.00 63 1010.2
20220624062302 80 201 8.0 15.0 0.00 0.00 0.00 63 1010.2
20220624062208 80 225 9.0 15.0 0.00 0.00 0.00 63 1010.2
20220624062104 80 213 7.0 15.0 0.00 0.00 0.00 62 1010.2
20220624062030 80 195 7.0 15.0 0.00 0.00 0.00 63 1010.2
20220624061905 80 209 8.0 12.0 0.00 0.00 0.00 65 1010.3
20220624061802 80 240 7.0 12.0 0.00 0.00 0.00 64 1010.3
20220624061703 80 238 6.0 12.0 0.00 0.00 0.00 64 1010.2
20220624061606 80 232 11.0 12.0 0.00 0.00 0.00 65 1010.2
20220624061503 80 246 5.0 11.0 0.00 0.00 0.00 65 1010.3
20220624061404 80 194 1.0 11.0 0.00 0.00 0.00 64 1010.2
20220624061301 80 221 2.0 11.0 0.00 0.00 0.00 64 1010.3
20220624061104 80 201 3.0 11.0 0.00 0.00 0.00 64 1010.3
20220624061004 80 198 7.0 11.0 0.00 0.00 0.00 64 1010.4
20220624060904 80 208 6.0 11.0 0.00 0.00 0.00 65 1010.3
20220624060806 80 257 6.0 11.0 0.00 0.00 0.00 65 1010.4
20220624060701 80 202 5.0 11.0 0.00 0.00 0.00 64 1010.4
20220624060621 80 198 7.0 11.0 0.00 0.00 0.00 65 1010.4
20220624060505 80 204 7.0 11.0 0.00 0.00 0.00 66 1010.4
20220624060402 80 225 7.0 11.0 0.00 0.00 0.00 66 1010.4
20220624060305 80 223 8.0 11.0 0.00 0.00 0.00 66 1010.4
20220624060203 79 198 4.0 11.0 0.00 0.00 0.00 66 1010.4
20220624060116 79 209 6.0 11.0 0.00 0.00 0.00 67 1010.4
20220624060007 79 200 7.0 11.0 0.00 0.00 0.00 67 1010.4
20220624055902 79 229 3.0 11.0 0.00 0.00 0.00 66 1010.4
20220624055804 79 224 4.0 11.0 0.00 0.00 0.00 67 1010.4
20220624055702 79 219 5.0 11.0 0.00 0.00 0.00 67 1010.4
20220624055602 79 217 6.0 11.0 0.00 0.00 0.00 67 1010.3
20220624055506 79 219 9.0 11.0 0.00 0.00 0.00 66 1010.3
20220624055404 79 188 9.0 10.0 0.00 0.00 0.00 66 1010.3
20220624055303 79 170 2.0 6.0 0.00 0.00 0.00 67 1010.4
20220624055204 79 199 6.0 7.0 0.00 0.00 0.00 68 1010.3
20220624055102 79 226 3.0 7.0 0.00 0.00 0.00 68 1010.3
20220624055006 79 198 2.0 7.0 0.00 0.00 0.00 67 1010.3
20220624054905 79 209 3.0 7.0 0.00 0.00 0.00 68 1010.3
20220624054803 79 191 5.0 7.0 0.00 0.00 0.00 68 1010.3
20220624054706 79 184 6.0 7.0 0.00 0.00 0.00 68 1010.3
20220624054626 79 167 5.0 7.0 0.00 0.00 0.00 68 1010.3
20220624054501 79 182 1.0 7.0 0.00 0.00 0.00 69 1010.3
20220624054403 79 173 3.0 7.0 0.00 0.00 0.00 68 1010.3
20220624054305 79 234 5.0 7.0 0.00 0.00 0.00 69 1010.3
20220624054204 79 190 7.0 7.0 0.00 0.00 0.00 69 1010.3
20220624054103 78 205 4.0 7.0 0.00 0.00 0.00 69 1010.3
20220624054006 78 246 2.0 7.0 0.00 0.00 0.00 69 1010.3
20220624053902 78 210 3.0 8.0 0.00 0.00 0.00 69 1010.3
20220624053805 78 202 3.0 8.0 0.00 0.00 0.00 69 1010.3
20220624053704 78 224 4.0 8.0 0.00 0.00 0.00 69 1010.3
20220624053603 78 204 6.0 8.0 0.00 0.00 0.00 69 1010.3
20220624053503 78 221 3.0 8.0 0.00 0.00 0.00 69 1010.3
20220624053301 78 205 5.0 8.0 0.00 0.00 0.00 69 1010.3
20220624053222 78 219 4.0 8.0 0.00 0.00 0.00 69 1010.3
20220624053107 78 217 5.0 8.0 0.00 0.00 0.00 69 1010.3
20220624053003 78 202 6.0 8.0 0.00 0.00 0.00 70 1010.2
20220624052901 78 223 3.0 7.0 0.00 0.00 0.00 70 1010.2
20220624052805 78 242 3.0 7.0 0.00 0.00 0.00 70 1010.3
20220624052702 78 238 3.0 8.0 0.00 0.00 0.00 70 1010.2
20220624052602 77 210 5.0 8.0 0.00 0.00 0.00 70 1010.2
20220624052505 77 218 6.0 8.0 0.00 0.00 0.00 70 1010.2
20220624052405 77 211 6.0 8.0 0.00 0.00 0.00 71 1010.3
20220624052303 77 213 7.0 8.0 0.00 0.00 0.00 71 1010.2
20220624052204 77 205 7.0 8.0 0.00 0.00 0.00 71 1010.2
20220624052102 77 224 3.0 8.0 0.00 0.00 0.00 72 1010.2
20220624052004 77 238 6.0 8.0 0.00 0.00 0.00 72 1010.2
20220624051905 77 229 5.0 8.0 0.00 0.00 0.00 72 1010.2
20220624051802 77 220 3.0 8.0 0.00 0.00 0.00 72 1010.2
20220624051705 77 233 5.0 8.0 0.00 0.00 0.00 72 1010.2
20220624051604 77 225 5.0 8.0 0.00 0.00 0.00 72 1010.2
20220624051521 77 242 4.0 8.0 0.00 0.00 0.00 72 1010.2
20220624051402 77 215 7.0 8.0 0.00 0.00 0.00 72 1010.2
20220624051308 76 218 6.0 8.0 0.00 0.00 0.00 72 1010.1
20220624051202 76 219 6.0 7.0 0.00 0.00 0.00 72 1010.2
20220624051102 76 201 7.0 9.0 0.00 0.00 0.00 72 1010.2
20220624051005 76 223 6.0 9.0 0.00 0.00 0.00 73 1010.2
20220624050905 76 220 6.0 10.0 0.00 0.00 0.00 72 1010.2
20220624050802 76 223 6.0 10.0 0.00 0.00 0.00 72 1010.3
20220624050705 76 234 6.0 10.0 0.00 0.00 0.00 72 1010.3
20220624050601 76 219 5.0 10.0 0.00 0.00 0.00 72 1010.2
20220624050501 76 228 6.0 10.0 0.00 0.00 0.00 72 1010.2
20220624050403 76 224 6.0 10.0 0.00 0.00 0.00 73 1010.3
20220624050302 76 225 7.0 10.0 0.00 0.00 0.00 73 1010.2
20220624050207 76 225 5.0 10.0 0.00 0.00 0.00 73 1010.2
20220624050113 75 221 5.0 10.0 0.00 0.00 0.00 73 1010.2
20220624050011 75 224 5.0 10.0 0.00 0.00 0.00 73 1010.2
20220624045904 75 209 7.0 10.0 0.00 0.00 0.00 73 1010.2
20220624045804 75 206 5.0 10.0 0.00 0.00 0.00 74 1010.2
20220624045705 75 217 5.0 10.0 0.00 0.00 0.00 74 1010.2
20220624045602 75 213 4.0 10.0 0.00 0.00 0.00 74 1010.2
20220624045503 75 215 4.0 10.0 0.00 0.00 0.00 74 1010.2
20220624045404 75 215 9.0 10.0 0.00 0.00 0.00 74 1010.2
20220624045302 75 229 7.0 10.0 0.00 0.00 0.00 74 1010.2
20220624045205 75 225 5.0 10.0 0.00 0.00 0.00 74 1010.2
20220624045125 75 211 4.0 10.0 0.00 0.00 0.00 74 1010.2
20220624045003 74 219 9.0 11.0 0.00 0.00 0.00 75 1010.2
20220624044901 74 213 6.0 11.0 0.00 0.00 0.00 75 1010.2
20220624044804 74 202 7.0 11.0 0.00 0.00 0.00 75 1010.2
20220624044701 74 209 7.0 11.0 0.00 0.00 0.00 75 1010.2
20220624044623 74 227 5.0 11.0 0.00 0.00 0.00 76 1010.2
20220624044526 74 198 7.0 11.0 0.00 0.00 0.00 75 1010.2
20220624044402 74 209 6.0 11.0 0.00 0.00 0.00 76 1010.2
20220624044307 73 209 6.0 11.0 0.00 0.00 0.00 76 1010.2
20220624044204 73 192 5.0 11.0 0.00 0.00 0.00 76 1010.1
20220624044103 73 193 7.0 11.0 0.00 0.00 0.00 76 1010.2
20220624044003 73 190 6.0 7.0 0.00 0.00 0.00 76 1010.1
20220624043904 73 191 3.0 5.0 0.00 0.00 0.00 76 1010.1
20220624043802 73 238 2.0 8.0 0.00 0.00 0.00 76 1010.1
20220624043720 73 287 1.0 9.0 0.00 0.00 0.00 76 1010.1
20220624043605 73 292 2.0 9.0 0.00 0.00 0.00 76 1010.1
20220624043517 73 292 1.0 9.0 0.00 0.00 0.00 76 1010.1
20220624043402 73 223 0.0 9.0 0.00 0.00 0.00 76 1010.1
20220624043304 73 223 0.0 9.0 0.00 0.00 0.00 76 1010.1
20220624043201 73 244 4.0 10.0 0.00 0.00 0.00 76 1010.1
20220624043101 73 203 3.0 12.0 0.00 0.00 0.00 76 1010.0
20220624043007 73 214 1.0 12.0 0.00 0.00 0.00 76 1010.0
20220624042901 73 178 2.0 12.0 0.00 0.00 0.00 76 1010.0
20220624042802 73 215 3.0 12.0 0.00 0.00 0.00 76 1010.0
20220624042705 73 188 7.0 12.0 0.00 0.00 0.00 76 1010.0
20220624042603 73 240 3.0 12.0 0.00 0.00 0.00 76 1010.0
20220624042502 73 187 7.0 12.0 0.00 0.00 0.00 76 1010.0
20220624042406 73 204 8.0 12.0 0.00 0.00 0.00 76 1009.9
20220624042301 73 194 7.0 12.0 0.00 0.00 0.00 76 1009.9
20220624042202 73 213 7.0 12.0 0.00 0.00 0.00 76 1009.8
20220624042104 73 192 7.0 12.0 0.00 0.00 0.00 76 1009.8
20220624042003 73 201 7.0 12.0 0.00 0.00 0.00 76 1009.8
20220624041902 73 192 9.0 12.0 0.00 0.00 0.00 76 1009.7
20220624041803 73 181 7.0 13.0 0.00 0.00 0.00 76 1009.8
20220624041703 73 184 10.0 13.0 0.00 0.00 0.00 77 1009.8
20220624041602 73 196 10.0 13.0 0.00 0.00 0.00 77 1009.7
20220624041523 73 183 9.0 13.0 0.00 0.00 0.00 77 1009.7
20220624041421 72 189 8.0 13.0 0.00 0.00 0.00 77 1009.7
20220624041302 72 187 11.0 13.0 0.00 0.00 0.00 77 1009.7
20220624041202 72 190 7.0 13.0 0.00 0.00 0.00 78 1009.7
20220624041104 72 178 8.0 13.0 0.00 0.00 0.00 78 1009.8
20220624041026 72 186 9.0 13.0 0.00 0.00 0.00 78 1009.8
20220624040902 72 192 8.0 13.0 0.00 0.00 0.00 78 1009.7
20220624040805 72 189 11.0 13.0 0.00 0.00 0.00 78 1009.8
20220624040705 72 194 9.0 13.0 0.00 0.00 0.00 79 1009.7
20220624040604 72 193 9.0 13.0 0.00 0.00 0.00 79 1009.7
20220624040525 71 186 11.0 13.0 0.00 0.00 0.00 79 1009.7
20220624040402 71 184 10.0 13.0 0.00 0.00 0.00 79 1009.7
20220624040303 71 188 10.0 12.0 0.00 0.00 0.00 79 1009.7
20220624040222 71 192 11.0 12.0 0.00 0.00 0.00 79 1009.7
20220624040139 71 194 8.0 12.0 0.00 0.00 0.00 80 1009.7
20220624040033 71 190 10.0 12.0 0.00 0.00 0.00 80 1009.7
20220624035903 71 186 10.0 11.0 0.00 0.00 0.00 80 1009.7
20220624035815 71 194 9.0 11.0 0.00 0.00 0.00 80 1009.7
20220624035701 71 184 10.0 11.0 0.00 0.00 0.00 81 1009.7
20220624035603 71 190 9.0 11.0 0.00 0.00 0.00 81 1009.7
20220624035508 71 188 8.0 11.0 0.00 0.00 0.00 81 1009.7
20220624035404 70 197 9.0 11.0 0.00 0.00 0.00 81 1009.7
20220624035304 70 190 8.0 11.0 0.00 0.00 0.00 81 1009.7
20220624035204 70 186 8.0 11.0 0.00 0.00 0.00 81 1009.7
20220624035105 70 188 10.0 11.0 0.00 0.00 0.00 81 1009.6
20220624035008 70 188 9.0 11.0 0.00 0.00 0.00 82 1009.6
20220624034903 70 188 10.0 11.0 0.00 0.00 0.00 82 1009.6
20220624034802 70 195 9.0 10.0 0.00 0.00 0.00 83 1009.6
20220624034704 70 189 9.0 11.0 0.00 0.00 0.00 83 1009.5
20220624034602 70 187 10.0 10.0 0.00 0.00 0.00 83 1009.6
20220624034524 70 187 9.0 11.0 0.00 0.00 0.00 83 1009.6
20220624034404 70 196 8.0 11.0 0.00 0.00 0.00 84 1009.6
20220624034302 69 187 9.0 10.0 0.00 0.00 0.00 84 1009.6
20220624034204 69 187 9.0 10.0 0.00 0.00 0.00 85 1009.6
20220624034103 69 188 10.0 12.0 0.00 0.00 0.00 85 1009.6
20220624034010 69 188 9.0 12.0 0.00 0.00 0.00 85 1009.6
20220624033903 69 194 7.0 12.0 0.00 0.00 0.00 86 1009.6
20220624033822 68 186 9.0 12.0 0.00 0.00 0.00 86 1009.6
20220624033722 68 183 8.0 12.0 0.00 0.00 0.00 87 1009.6
20220624033606 68 195 8.0 12.0 0.00 0.00 0.00 87 1009.6
20220624033503 68 180 7.0 12.0 0.00 0.00 0.00 87 1009.6
20220624033403 67 189 8.0 12.0 0.00 0.00 0.00 87 1009.6
20220624033324 67 184 10.0 12.0 0.00 0.00 0.00 88 1009.6
20220624033221 67 189 9.0 12.0 0.00 0.00 0.00 88 1009.6
20220624033103 67 190 8.0 12.0 0.00 0.00 0.00 88 1009.6
20220624033007 66 182 10.0 11.0 0.00 0.00 0.00 88 1009.6
20220624032902 66 180 9.0 11.0 0.00 0.00 0.00 88 1009.6
20220624032806 66 188 10.0 11.0 0.00 0.00 0.00 88 1009.7
20220624032708 65 186 11.0 11.0 0.00 0.00 0.00 88 1009.7
20220624032602 65 189 8.0 10.0 0.00 0.00 0.00 87 1009.7
20220624032504 65 186 8.0 10.0 0.00 0.00 0.00 87 1009.7
20220624032401 65 190 8.0 9.0 0.00 0.00 0.00 87 1009.7
20220624032321 65 189 7.0 8.0 0.00 0.00 0.00 87 1009.7
20220624032204 65 190 7.0 7.0 0.00 0.00 0.00 87 1009.8
20220624032122 65 192 6.0 7.0 0.00 0.00 0.00 87 1009.8
20220624032008 65 195 7.0 7.0 0.00 0.00 0.00 87 1009.8
20220624031902 65 196 6.0 7.0 0.00 0.00 0.00 86 1009.8
20220624031804 65 199 6.0 7.0 0.00 0.00 0.00 86 1009.8
20220624031707 65 199 7.0 7.0 0.00 0.00 0.00 86 1009.8
20220624031602 65 199 6.0 7.0 0.00 0.00 0.00 86 1009.8
20220624031506 65 199 6.0 7.0 0.00 0.00 0.00 86 1009.7
20220624031402 65 204 5.0 7.0 0.00 0.00 0.00 86 1009.8
20220624031302 65 204 5.0 7.0 0.00 0.00 0.00 86 1009.7
20220624031203 65 204 6.0 7.0 0.00 0.00 0.00 86 1009.7
20220624031108 65 204 5.0 7.0 0.00 0.00 0.00 86 1009.7
20220624031010 65 204 5.0 7.0 0.00 0.00 0.00 86 1009.7
20220624030902 65 196 5.0 7.0 0.00 0.00 0.00 86 1009.7
20220624030805 65 207 5.0 7.0 0.00 0.00 0.00 86 1009.7
20220624030701 65 205 5.0 7.0 0.00 0.00 0.00 86 1009.6
20220624030601 65 202 6.0 7.0 0.00 0.00 0.00 86 1009.6
20220624030508 65 202 6.0 7.0 0.00 0.00 0.00 86 1009.6
20220624030423 65 202 6.0 7.0 0.00 0.00 0.00 86 1009.6
20220624030302 65 202 5.0 7.0 0.00 0.00 0.00 86 1009.7
20220624030202 65 198 5.0 7.0 0.00 0.00 0.00 86 1009.7
20220624030116 65 202 6.0 7.0 0.00 0.00 0.00 86 1009.7
20220624030005 65 202 6.0 7.0 0.00 0.00 0.00 86 1009.7
20220624025902 65 201 6.0 7.0 0.00 0.00 0.00 86 1009.7
20220624025804 65 200 6.0 7.0 0.00 0.00 0.00 85 1009.7
20220624025702 66 203 6.0 6.0 0.00 0.00 0.00 85 1009.7
20220624025601 66 209 4.0 5.0 0.00 0.00 0.00 85 1009.7
20220624025505 66 214 4.0 5.0 0.00 0.00 0.00 85 1009.7
20220624025403 66 216 3.0 5.0 0.00 0.00 0.00 85 1009.7
20220624025302 66 212 4.0 5.0 0.00 0.00 0.00 86 1009.7
20220624025205 66 219 4.0 4.0 0.00 0.00 0.00 86 1009.8
20220624025101 66 222 3.0 4.0 0.00 0.00 0.00 86 1009.8
20220624025002 66 216 3.0 4.0 0.00 0.00 0.00 86 1009.8
20220624024903 66 216 3.0 5.0 0.00 0.00 0.00 86 1009.8
20220624024802 66 216 3.0 5.0 0.00 0.00 0.00 86 1009.8
20220624024702 66 207 2.0 5.0 0.00 0.00 0.00 86 1009.8
20220624024605 66 204 3.0 5.0 0.00 0.00 0.00 86 1009.8
20220624024502 66 210 2.0 5.0 0.00 0.00 0.00 86 1009.8
20220624024401 66 210 1.0 5.0 0.00 0.00 0.00 86 1009.7
20220624024305 66 210 1.0 5.0 0.00 0.00 0.00 85 1009.7
20220624024202 66 180 1.0 5.0 0.00 0.00 0.00 85 1009.7
20220624024122 66 180 1.0 5.0 0.00 0.00 0.00 85 1009.7
20220624024038 66 180 1.0 5.0 0.00 0.00 0.00 85 1009.7
20220624023904 66 180 3.0 5.0 0.00 0.00 0.00 85 1009.7
20220624023802 66 193 4.0 5.0 0.00 0.00 0.00 85 1009.7
20220624023708 66 188 2.0 5.0 0.00 0.00 0.00 85 1009.7
20220624023604 66 188 2.0 5.0 0.00 0.00 0.00 85 1009.7
20220624023502 66 176 2.0 5.0 0.00 0.00 0.00 85 1009.7
20220624023404 66 176 4.0 5.0 0.00 0.00 0.00 84 1009.7
20220624023301 66 186 3.0 4.0 0.00 0.00 0.00 84 1009.7
20220624023201 66 123 3.0 4.0 0.00 0.00 0.00 84 1009.7
20220624023102 66 123 1.0 4.0 0.00 0.00 0.00 85 1009.7
20220624023008 66 123 1.0 4.0 0.00 0.00 0.00 85 1009.7
20220624022903 66 123 2.0 4.0 0.00 0.00 0.00 85 1009.7
20220624022802 66 124 2.0 3.0 0.00 0.00 0.00 85 1009.7
20220624022705 66 124 2.0 3.0 0.00 0.00 0.00 85 1009.7
20220624022603 66 164 1.0 3.0 0.00 0.00 0.00 85 1009.7
20220624022503 66 85 1.0 3.0 0.00 0.00 0.00 84 1009.7
20220624022407 67 61 2.0 3.0 0.00 0.00 0.00 84 1009.7
20220624022302 67 187 2.0 2.0 0.00 0.00 0.00 84 1009.8
20220624022207 67 187 1.0 2.0 0.00 0.00 0.00 84 1009.8
20220624022103 67 187 0.0 2.0 0.00 0.00 0.00 84 1009.7
20220624022005 67 187 1.0 2.0 0.00 0.00 0.00 84 1009.8
20220624021905 67 187 1.0 2.0 0.00 0.00 0.00 84 1009.7
20220624021825 67 187 1.0 2.0 0.00 0.00 0.00 84 1009.7
20220624021703 67 215 1.0 2.0 0.00 0.00 0.00 84 1009.7
20220624021601 67 226 1.0 2.0 0.00 0.00 0.00 84 1009.7
20220624021504 67 226 2.0 2.0 0.00 0.00 0.00 83 1009.7
20220624021404 67 226 2.0 2.0 0.00 0.00 0.00 83 1009.7
20220624021302 67 226 1.0 2.0 0.00 0.00 0.00 83 1009.7
20220624021204 67 226 0.0 2.0 0.00 0.00 0.00 83 1009.7
20220624021104 67 226 1.0 2.0 0.00 0.00 0.00 83 1009.7
20220624021003 67 226 1.0 2.0 0.00 0.00 0.00 83 1009.8
20220624020904 67 226 1.0 2.0 0.00 0.00 0.00 83 1009.8
20220624020801 68 226 1.0 2.0 0.00 0.00 0.00 83 1009.8
20220624020703 68 226 1.0 2.0 0.00 0.00 0.00 83 1009.8
20220624020607 68 226 0.0 3.0 0.00 0.00 0.00 83 1009.8
20220624020505 68 226 1.0 3.0 0.00 0.00 0.00 83 1009.8
20220624020404 68 226 0.0 3.0 0.00 0.00 0.00 83 1009.8
20220624020306 68 226 0.0 3.0 0.00 0.00 0.00 83 1009.8
20220624020205 68 226 1.0 3.0 0.00 0.00 0.00 83 1009.8
20220624020117 68 226 1.0 3.0 0.00 0.00 0.00 83 1009.8
20220624020015 68 226 0.0 3.0 0.00 0.00 0.00 83 1009.8
20220624015902 68 226 2.0 3.0 0.00 0.00 0.00 82 1009.8
20220624015805 68 226 1.0 3.0 0.00 0.00 0.00 82 1009.8
20220624015704 68 226 1.0 3.0 0.00 0.00 0.00 82 1009.9
20220624015602 68 226 2.0 3.0 0.00 0.00 0.00 82 1009.9
20220624015503 68 265 2.0 3.0 0.00 0.00 0.00 82 1009.9
20220624015407 68 265 2.0 3.0 0.00 0.00 0.00 82 1009.9
20220624015302 68 265 2.0 3.0 0.00 0.00 0.00 82 1009.9
20220624015202 68 265 2.0 5.0 0.00 0.00 0.00 82 1009.9
20220624015104 68 288 1.0 6.0 0.00 0.00 0.00 82 1009.9
20220624015004 68 288 2.0 6.0 0.00 0.00 0.00 82 1009.9
20220624014902 68 288 2.0 6.0 0.00 0.00 0.00 82 1009.9
20220624014805 68 288 2.0 6.0 0.00 0.00 0.00 82 1009.9
20220624014703 68 302 2.0 6.0 0.00 0.00 0.00 82 1009.9
20220624014622 68 307 2.0 6.0 0.00 0.00 0.00 82 1009.9
20220624014507 68 315 1.0 6.0 0.00 0.00 0.00 82 1009.9
20220624014402 68 327 3.0 6.0 0.00 0.00 0.00 82 1010.0
20220624014302 69 301 0.0 6.0 0.00 0.00 0.00 82 1010.0
20220624014203 69 325 3.0 6.0 0.00 0.00 0.00 82 1010.0
20220624014101 69 330 5.0 6.0 0.00 0.00 0.00 82 1010.0
20220624014003 69 301 2.0 6.0 0.00 0.00 0.00 82 1010.0
20220624013924 69 271 2.0 6.0 0.00 0.00 0.00 82 1010.0
20220624013802 69 307 3.0 6.0 0.00 0.00 0.00 83 1010.0
20220624013702 69 329 3.0 6.0 0.00 0.00 0.00 83 1010.0
20220624013604 69 342 5.0 6.0 0.00 0.00 0.00 82 1010.0
20220624013502 69 347 4.0 6.0 0.00 0.00 0.00 82 1010.0
20220624013402 69 346 4.0 6.0 0.00 0.00 0.00 82 1010.0
20220624013304 69 333 3.0 4.0 0.00 0.00 0.00 82 1010.0
20220624013202 69 330 4.0 4.0 0.00 0.00 0.00 82 1010.0
20220624013102 69 355 3.0 4.0 0.00 0.00 0.00 82 1010.0
20220624013040 69 355 2.0 4.0 0.00 0.00 0.00 82 1010.0
20220624012902 69 336 3.0 4.0 0.00 0.00 0.00 81 1010.0
20220624012802 69 319 2.0 4.0 0.00 0.00 0.00 81 1010.0
20220624012723 69 289 2.0 4.0 0.00 0.00 0.00 81 1010.0
20220624012602 69 201 0.0 4.0 0.00 0.00 0.00 80 1010.1
20220624012502 69 202 0.0 4.0 0.00 0.00 0.00 80 1010.0
20220624012404 69 194 1.0 4.0 0.00 0.00 0.00 80 1010.0
20220624012302 69 194 1.0 4.0 0.00 0.00 0.00 80 1010.0
20220624012201 69 194 2.0 4.0 0.00 0.00 0.00 80 1010.1
20220624012106 69 194 3.0 3.0 0.00 0.00 0.00 80 1010.1
20220624012034 69 203 2.0 3.0 0.00 0.00 0.00 79 1010.1
20220624011905 69 223 2.0 3.0 0.00 0.00 0.00 79 1010.1
20220624011808 69 223 2.0 3.0 0.00 0.00 0.00 79 1010.1
20220624011702 70 240 2.0 3.0 0.00 0.00 0.00 79 1010.1
20220624011602 70 204 1.0 2.0 0.00 0.00 0.00 78 1010.2
20220624011505 70 204 1.0 2.0 0.00 0.00 0.00 78 1010.2
20220624011402 70 204 1.0 2.0 0.00 0.00 0.00 78 1010.2
20220624011306 70 204 1.0 2.0 0.00 0.00 0.00 78 1010.2
20220624011205 70 204 1.0 2.0 0.00 0.00 0.00 78 1010.2
20220624011119 70 204 1.0 2.0 0.00 0.00 0.00 78 1010.2
20220624011036 70 204 1.0 2.0 0.00 0.00 0.00 77 1010.2
20220624010907 70 207 2.0 2.0 0.00 0.00 0.00 77 1010.2
20220624010801 71 224 0.0 2.0 0.00 0.00 0.00 77 1010.2
20220624010702 71 224 0.0 3.0 0.00 0.00 0.00 76 1010.2
20220624010607 71 224 1.0 3.0 0.00 0.00 0.00 76 1010.2
20220624010501 71 224 1.0 3.0 0.00 0.00 0.00 76 1010.3
20220624010403 71 224 1.0 3.0 0.00 0.00 0.00 76 1010.3
20220624010304 71 224 1.0 3.0 0.00 0.00 0.00 76 1010.4
20220624010202 71 224 0.0 4.0 0.00 0.00 0.00 77 1010.3
20220624010111 71 224 1.0 4.0 0.00 0.00 0.00 76 1010.4
20220624010007 71 224 1.0 4.0 0.00 0.00 0.00 76 1010.4
20220624005902 71 224 2.0 4.0 0.00 0.00 0.00 76 1010.4
20220624005801 71 211 2.0 4.0 0.00 0.00 0.00 75 1010.4
20220624005709 71 211 2.0 4.0 0.00 0.00 0.00 75 1010.4
20220624005602 72 211 0.0 4.0 0.00 0.00 0.00 75 1010.3
20220624005502 72 211 2.0 4.0 0.00 0.00 0.00 75 1010.4
20220624005404 72 211 1.0 5.0 0.00 0.00 0.00 75 1010.4
20220624005301 72 211 3.0 6.0 0.00 0.00 0.00 75 1010.4
20220624005203 72 206 3.0 6.0 0.00 0.00 0.00 75 1010.4
20220624005104 72 219 1.0 6.0 0.00 0.00 0.00 75 1010.4
20220624005004 72 219 0.0 6.0 0.00 0.00 0.00 75 1010.4
20220624004921 72 219 1.0 6.0 0.00 0.00 0.00 75 1010.4
20220624004602 72 190 3.0 7.0 0.00 0.00 0.00 74 1010.5
20220624004505 72 192 4.0 7.0 0.00 0.00 0.00 74 1010.5
20220624004403 72 194 4.0 7.0 0.00 0.00 0.00 74 1010.5
20220624004305 72 192 3.0 7.0 0.00 0.00 0.00 74 1010.4
20220624004204 72 186 3.0 7.0 0.00 0.00 0.00 74 1010.4
20220624004101 72 198 4.0 7.0 0.00 0.00 0.00 74 1010.5
20220624004013 72 192 3.0 7.0 0.00 0.00 0.00 74 1010.5
20220624003907 73 192 4.0 7.0 0.00 0.00 0.00 74 1010.5
20220624003804 73 195 4.0 7.0 0.00 0.00 0.00 74 1010.5
20220624003706 73 184 3.0 7.0 0.00 0.00 0.00 73 1010.5
20220624003603 73 184 6.0 7.0 0.00 0.00 0.00 73 1010.5
20220624003503 73 192 6.0 6.0 0.00 0.00 0.00 73 1010.6
20220624003401 73 196 5.0 6.0 0.00 0.00 0.00 73 1010.5
20220624003307 73 225 4.0 6.0 0.00 0.00 0.00 73 1010.5
20220624003202 73 207 4.0 6.0 0.00 0.00 0.00 72 1010.5
20220624003114 73 207 4.0 6.0 0.00 0.00 0.00 72 1010.5
20220624003009 73 225 4.0 6.0 0.00 0.00 0.00 72 1010.6
20220624002925 73 230 5.0 6.0 0.00 0.00 0.00 72 1010.5
20220624002803 73 236 3.0 6.0 0.00 0.00 0.00 72 1010.5
20220624002706 74 239 2.0 6.0 0.00 0.00 0.00 72 1010.5
20220624002606 74 257 2.0 7.0 0.00 0.00 0.00 72 1010.5
20220624002524 74 248 3.0 7.0 0.00 0.00 0.00 72 1010.5
20220624002403 74 256 4.0 7.0 0.00 0.00 0.00 72 1010.5
20220624002302 74 256 4.0 7.0 0.00 0.00 0.00 72 1010.5
20220624002202 74 268 4.0 7.0 0.00 0.00 0.00 72 1010.5
20220624002103 74 271 4.0 7.0 0.00 0.00 0.00 72 1010.5
20220624002008 74 277 3.0 7.0 0.00 0.00 0.00 71 1010.6
20220624001902 74 282 5.0 7.0 0.00 0.00 0.00 71 1010.6
20220624001802 74 291 3.0 7.0 0.00 0.00 0.00 71 1010.6
20220624001704 74 284 4.0 7.0 0.00 0.00 0.00 71 1010.6
20220624001601 74 269 5.0 7.0 0.00 0.00 0.00 71 1010.6
20220624001503 74 292 5.0 6.0 0.00 0.00 0.00 71 1010.6
20220624001424 74 283 6.0 6.0 0.00 0.00 0.00 71 1010.6
20220624001302 75 278 4.0 4.0 0.00 0.00 0.00 71 1010.6
20220624001204 75 305 1.0 4.0 0.00 0.00 0.00 71 1010.6
20220624001104 75 298 2.0 5.0 0.00 0.00 0.00 71 1010.6
20220624001003 75 325 1.0 6.0 0.00 0.00 0.00 70 1010.6
20220624000924 75 325 0.0 6.0 0.00 0.00 0.00 70 1010.6
20220624000824 75 325 1.0 6.0 0.00 0.00 0.00 70 1010.6
20220624000701 75 325 3.0 6.0 0.00 0.00 0.00 70 1010.6
20220624000603 75 246 2.0 6.0 0.00 0.00 0.00 70 1010.6
20220624000509 75 282 2.0 6.0 0.00 0.00 0.00 70 1010.6
20220624000402 75 245 2.0 6.0 0.00 0.00 0.00 69 1010.6
20220624000302 75 241 2.0 6.0 0.00 0.00 0.00 69 1010.6
20220624000205 75 212 2.0 6.0 0.00 0.00 0.00 69 1010.6
20220624000113 75 211 2.0 6.0 0.00 0.00 0.00 69 1010.6
20220624000006 75 220 2.0 6.0 0.00 0.00 0.00 69 1010.5
20220623235901 75 219 2.0 6.0 0.00 0.00 0.00 69 1010.5
20220623235805 75 224 2.0 6.0 0.00 0.00 0.00 69 1010.6
20220623235703 75 209 3.0 6.0 0.00 0.00 0.00 69 1010.6
20220623235604 75 226 2.0 6.0 0.00 0.00 0.00 68 1010.6
20220623235504 75 202 4.0 6.0 0.00 0.00 0.00 68 1010.6
20220623235427 75 193 3.0 6.0 0.00 0.00 0.00 68 1010.6
20220623235305 75 196 3.0 6.0 0.00 0.00 0.00 68 1010.6
20220623235205 75 205 5.0 6.0 0.00 0.00 0.00 68 1010.6
20220623235102 75 190 4.0 6.0 0.00 0.00 0.00 68 1010.6
20220623235007 75 192 4.0 6.0 0.00 0.00 0.00 68 1010.6
20220623234902 75 197 5.0 7.0 0.00 0.00 0.00 68 1010.7
20220623234821 75 198 3.0 7.0 0.00 0.00 0.00 68 1010.7
20220623234705 76 199 4.0 7.0 0.00 0.00 0.00 68 1010.7
20220623234603 76 194 4.0 7.0 0.00 0.00 0.00 68 1010.7
20220623234503 76 203 4.0 7.0 0.00 0.00 0.00 67 1010.7
20220623234405 76 194 6.0 7.0 0.00 0.00 0.00 67 1010.7
20220623234301 76 196 5.0 7.0 0.00 0.00 0.00 67 1010.7
20220623234203 76 188 5.0 7.0 0.00 0.00 0.00 67 1010.6
20220623234104 76 190 5.0 8.0 0.00 0.00 0.00 67 1010.7
20220623234032 76 191 5.0 8.0 0.00 0.00 0.00 67 1010.7
20220623233904 76 198 5.0 8.0 0.00 0.00 0.00 67 1010.6
20220623233806 76 188 6.0 9.0 0.00 0.00 0.00 66 1010.6
20220623233703 76 195 7.0 9.0 0.00 0.00 0.00 66 1010.7
20220623233603 76 188 6.0 9.0 0.00 0.00 0.00 66 1010.7
20220623233508 76 199 6.0 9.0 0.00 0.00 0.00 66 1010.7
20220623233423 76 194 6.0 9.0 0.00 0.00 0.00 66 1010.7
20220623233325 76 194 7.0 9.0 0.00 0.00 0.00 66 1010.7
20220623233207 76 205 7.0 10.0 0.00 0.00 0.00 66 1010.7
20220623233101 77 196 7.0 11.0 0.00 0.00 0.00 66 1010.7
20220623233003 77 194 6.0 11.0 0.00 0.00 0.00 66 1010.7
20220623232905 77 188 7.0 11.0 0.00 0.00 0.00 66 1010.7
20220623232802 77 197 7.0 11.0 0.00 0.00 0.00 66 1010.8
20220623232702 77 199 7.0 11.0 0.00 0.00 0.00 66 1010.8
20220623232604 77 188 9.0 11.0 0.00 0.00 0.00 66 1010.7
20220623232501 77 196 7.0 11.0 0.00 0.00 0.00 66 1010.7
20220623232420 77 189 9.0 11.0 0.00 0.00 0.00 66 1010.7
20220623232305 77 186 9.0 11.0 0.00 0.00 0.00 66 1010.8
20220623232202 77 183 11.0 11.0 0.00 0.00 0.00 66 1010.9
20220623232105 77 199 11.0 11.0 0.00 0.00 0.00 66 1010.9
20220623232017 77 189 8.0 12.0 0.00 0.00 0.00 66 1010.9
20220623231925 77 180 8.0 13.0 0.00 0.00 0.00 66 1010.9
20220623231802 77 190 8.0 13.0 0.00 0.00 0.00 66 1010.9